| time (UTC) | temp F | wind direction | speed MPH | gust MPH | rain 1hr in | rain 24hr in | rain mn in | humidity % | barometer mb |
| 20260902115200 | 89 | 108 | 5.0 | 11.0 | 0.00 | 0.00 | 0.00 | 43 | 1056.2 |
| 20260902115147 | 89 | 108 | 5.0 | 11.0 | 0.00 | 0.00 | 0.00 | 43 | 1056.3 |
| 20260902115135 | 89 | 112 | 5.0 | 11.0 | 0.00 | 0.00 | 0.00 | 43 | 1056.2 |
| 20260902114906 | 89 | 129 | 5.0 | 11.0 | 0.00 | 0.00 | 0.00 | 43 | 1056.3 |
| 20260902114624 | 89 | 96 | 4.0 | 11.0 | 0.00 | 0.00 | 0.00 | 43 | 1056.2 |
| 20260902114615 | 89 | 92 | 4.0 | 11.0 | 0.00 | 0.00 | 0.00 | 43 | 1056.3 |
| 20260902114604 | 89 | 97 | 4.0 | 11.0 | 0.00 | 0.00 | 0.00 | 43 | 1056.2 |
| 20260902114557 | 89 | 210 | 4.0 | 11.0 | 0.00 | 0.00 | 0.00 | 42 | 1056.2 |
| 20260902114546 | 89 | 185 | 4.0 | 11.0 | 0.00 | 0.00 | 0.00 | 42 | 1056.2 |
| 20260902114538 | 89 | 172 | 4.0 | 10.0 | 0.00 | 0.00 | 0.00 | 43 | 1056.2 |
| 20260902114522 | 89 | 71 | 4.0 | 9.0 | 0.00 | 0.00 | 0.00 | 42 | 1056.1 |
| 20260902114513 | 89 | 114 | 4.0 | 9.0 | 0.00 | 0.00 | 0.00 | 41 | 1056.3 |
| 20260902114247 | 89 | 71 | 3.0 | 9.0 | 0.00 | 0.00 | 0.00 | 42 | 1056.2 |
| 20260902114023 | 89 | 35 | 3.0 | 9.0 | 0.00 | 0.00 | 0.00 | 42 | 1056.2 |
| 20260902113522 | 89 | 113 | 4.0 | 9.0 | 0.00 | 0.00 | 0.00 | 41 | 1056.3 |
| 20260902113238 | 89 | 139 | 3.0 | 9.0 | 0.00 | 0.00 | 0.00 | 42 | 1056.4 |
| 20260902113140 | 89 | 73 | 3.0 | 8.0 | 0.00 | 0.00 | 0.00 | 41 | 1056.3 |
| 20260902113106 | 89 | 62 | 3.0 | 8.0 | 0.00 | 0.00 | 0.00 | 42 | 1056.3 |
| 20260902113044 | 89 | 66 | 3.0 | 8.0 | 0.00 | 0.00 | 0.00 | 41 | 1056.3 |
| 20260902113025 | 89 | 66 | 3.0 | 8.0 | 0.00 | 0.00 | 0.00 | 41 | 1056.3 |
| 20260902112739 | 89 | 47 | 3.0 | 8.0 | 0.00 | 0.00 | 0.00 | 41 | 1056.3 |
| 20260902112710 | 89 | 45 | 3.0 | 8.0 | 0.00 | 0.00 | 0.00 | 41 | 1056.3 |
| 20260902112704 | 89 | 138 | 3.0 | 8.0 | 0.00 | 0.00 | 0.00 | 41 | 1056.4 |
| 20260902112339 | 89 | 88 | 2.0 | 8.0 | 0.00 | 0.00 | 0.00 | 42 | 1056.4 |
| 20260902112306 | 89 | 102 | 2.0 | 8.0 | 0.00 | 0.00 | 0.00 | 42 | 1056.4 |
| 20260902112239 | 88 | 119 | 2.0 | 7.0 | 0.00 | 0.00 | 0.00 | 42 | 1056.4 |
| 20260902112138 | 88 | 152 | 3.0 | 7.0 | 0.00 | 0.00 | 0.00 | 42 | 1056.4 |
| 20260902112039 | 88 | 152 | 3.0 | 7.0 | 0.00 | 0.00 | 0.00 | 41 | 1056.4 |
| 20260902111939 | 88 | 83 | 3.0 | 7.0 | 0.00 | 0.00 | 0.00 | 41 | 1056.4 |
| 20260902111908 | 88 | 83 | 3.0 | 7.0 | 0.00 | 0.00 | 0.00 | 41 | 1056.4 |
| 20260902111859 | 88 | 83 | 3.0 | 7.0 | 0.00 | 0.00 | 0.00 | 42 | 1056.4 |
| 20260902111546 | 88 | 83 | 3.0 | 7.0 | 0.00 | 0.00 | 0.00 | 41 | 1056.4 |
| 20260902111525 | 88 | 84 | 3.0 | 7.0 | 0.00 | 0.00 | 0.00 | 41 | 1056.4 |
| 20260902111515 | 88 | 104 | 3.0 | 7.0 | 0.00 | 0.00 | 0.00 | 42 | 1056.5 |
| 20260902111506 | 88 | 114 | 3.0 | 7.0 | 0.00 | 0.00 | 0.00 | 42 | 1056.4 |
| 20260902111138 | 88 | 154 | 3.0 | 8.0 | 0.00 | 0.00 | 0.00 | 42 | 1056.4 |
| 20260902111038 | 88 | 152 | 2.0 | 8.0 | 0.00 | 0.00 | 0.00 | 43 | 1056.4 |
| 20260902110934 | 87 | 152 | 3.0 | 8.0 | 0.00 | 0.00 | 0.00 | 42 | 1056.4 |
| 20260902110836 | 87 | 152 | 3.0 | 8.0 | 0.00 | 0.00 | 0.00 | 42 | 1056.4 |
| 20260902110806 | 87 | 154 | 3.0 | 8.0 | 0.00 | 0.00 | 0.00 | 42 | 1056.4 |
| 20260902110752 | 87 | 220 | 3.0 | 8.0 | 0.00 | 0.00 | 0.00 | 42 | 1056.4 |
| 20260902110742 | 87 | 252 | 4.0 | 12.0 | 0.00 | 0.00 | 0.00 | 42 | 1056.4 |
| 20260902110730 | 87 | 253 | 4.0 | 12.0 | 0.00 | 0.00 | 0.00 | 42 | 1056.4 |
| 20260902110502 | 87 | 247 | 4.0 | 12.0 | 0.00 | 0.00 | 0.00 | 42 | 1056.5 |
| 20260902110455 | 87 | 253 | 4.0 | 12.0 | 0.00 | 0.00 | 0.00 | 42 | 1056.4 |
| 20260902110204 | 87 | 135 | 4.0 | 12.0 | 0.00 | 0.00 | 0.00 | 41 | 1056.5 |
| 20260902110156 | 87 | 136 | 4.0 | 12.0 | 0.00 | 0.00 | 0.00 | 41 | 1056.5 |
| 20260902105835 | 87 | 108 | 4.0 | 12.0 | 0.00 | 0.00 | 0.00 | 41 | 1056.5 |
| 20260902105806 | 87 | 108 | 3.0 | 12.0 | 0.00 | 0.00 | 0.00 | 41 | 1056.5 |
| 20260902105734 | 87 | 103 | 3.0 | 12.0 | 0.00 | 0.00 | 0.00 | 41 | 1056.5 |
| 20260902105710 | 87 | 116 | 3.0 | 10.0 | 0.00 | 0.00 | 0.00 | 43 | 1056.5 |
| 20260902105702 | 87 | 127 | 2.0 | 7.0 | 0.00 | 0.00 | 0.00 | 42 | 1056.4 |
| 20260902105343 | 87 | 124 | 2.0 | 6.0 | 0.00 | 0.00 | 0.00 | 43 | 1056.5 |
| 20260902105337 | 87 | 124 | 2.0 | 6.0 | 0.00 | 0.00 | 0.00 | 43 | 1056.4 |
| 20260902105329 | 87 | 124 | 2.0 | 6.0 | 0.00 | 0.00 | 0.00 | 42 | 1056.4 |
| 20260902105321 | 87 | 124 | 3.0 | 6.0 | 0.00 | 0.00 | 0.00 | 42 | 1056.5 |
| 20260902105311 | 87 | 122 | 3.0 | 7.0 | 0.00 | 0.00 | 0.00 | 43 | 1056.5 |
| 20260902105306 | 87 | 212 | 3.0 | 7.0 | 0.00 | 0.00 | 0.00 | 43 | 1056.5 |
| 20260902105032 | 86 | 212 | 3.0 | 7.0 | 0.00 | 0.00 | 0.00 | 44 | 1056.5 |
| 20260902105025 | 86 | 179 | 3.0 | 7.0 | 0.00 | 0.00 | 0.00 | 44 | 1056.5 |
| 20260902105016 | 86 | 146 | 3.0 | 7.0 | 0.00 | 0.00 | 0.00 | 44 | 1056.5 |
| 20260902104746 | 86 | 145 | 3.0 | 10.0 | 0.00 | 0.00 | 0.00 | 43 | 1056.6 |
| 20260902104235 | 86 | 147 | 4.0 | 10.0 | 0.00 | 0.00 | 0.00 | 44 | 1056.6 |
| 20260902104134 | 86 | 139 | 3.0 | 10.0 | 0.00 | 0.00 | 0.00 | 44 | 1056.5 |
| 20260902104034 | 86 | 81 | 3.0 | 10.0 | 0.00 | 0.00 | 0.00 | 46 | 1056.5 |
| 20260902103934 | 86 | 125 | 3.0 | 10.0 | 0.00 | 0.00 | 0.00 | 44 | 1056.5 |
| 20260902103806 | 86 | 125 | 4.0 | 10.0 | 0.00 | 0.00 | 0.00 | 44 | 1056.5 |
| 20260902103735 | 86 | 125 | 4.0 | 10.0 | 0.00 | 0.00 | 0.00 | 44 | 1056.5 |
| 20260902103631 | 86 | 125 | 4.0 | 10.0 | 0.00 | 0.00 | 0.00 | 43 | 1056.6 |
| 20260902103530 | 86 | 132 | 4.0 | 9.0 | 0.00 | 0.00 | 0.00 | 44 | 1056.6 |
| 20260902103431 | 86 | 76 | 4.0 | 9.0 | 0.00 | 0.00 | 0.00 | 45 | 1056.6 |
| 20260902103306 | 86 | 172 | 4.0 | 9.0 | 0.00 | 0.00 | 0.00 | 44 | 1056.6 |
| 20260902103230 | 86 | 164 | 4.0 | 9.0 | 0.00 | 0.00 | 0.00 | 44 | 1056.6 |
| 20260902103131 | 86 | 166 | 4.0 | 9.0 | 0.00 | 0.00 | 0.00 | 45 | 1056.6 |
| 20260902103031 | 86 | 166 | 4.0 | 11.0 | 0.00 | 0.00 | 0.00 | 46 | 1056.6 |
| 20260902102930 | 86 | 102 | 5.0 | 11.0 | 0.00 | 0.00 | 0.00 | 45 | 1056.6 |
| 20260902102831 | 85 | 86 | 5.0 | 11.0 | 0.00 | 0.00 | 0.00 | 46 | 1056.6 |
| 20260902102807 | 85 | 95 | 5.0 | 11.0 | 0.00 | 0.00 | 0.00 | 47 | 1056.7 |
| 20260902102731 | 85 | 79 | 5.0 | 11.0 | 0.00 | 0.00 | 0.00 | 47 | 1056.7 |
| 20260902102631 | 85 | 146 | 5.0 | 11.0 | 0.00 | 0.00 | 0.00 | 47 | 1056.6 |
| 20260902102532 | 85 | 174 | 6.0 | 11.0 | 0.00 | 0.00 | 0.00 | 47 | 1056.6 |
| 20260902102430 | 85 | 174 | 6.0 | 11.0 | 0.00 | 0.00 | 0.00 | 47 | 1056.7 |
| 20260902102330 | 85 | 105 | 6.0 | 11.0 | 0.00 | 0.00 | 0.00 | 47 | 1056.7 |
| 20260902102310 | 85 | 122 | 6.0 | 11.0 | 0.00 | 0.00 | 0.00 | 47 | 1056.6 |
| 20260902102256 | 85 | 130 | 6.0 | 11.0 | 0.00 | 0.00 | 0.00 | 47 | 1056.6 |
| 20260902102248 | 85 | 105 | 6.0 | 11.0 | 0.00 | 0.00 | 0.00 | 46 | 1056.6 |
| 20260902102240 | 85 | 118 | 6.0 | 11.0 | 0.00 | 0.00 | 0.00 | 45 | 1056.7 |
| 20260902102228 | 85 | 117 | 5.0 | 10.0 | 0.00 | 0.00 | 0.00 | 45 | 1056.6 |
| 20260902102217 | 85 | 131 | 5.0 | 10.0 | 0.00 | 0.00 | 0.00 | 46 | 1056.6 |
| 20260902102210 | 85 | 108 | 5.0 | 10.0 | 0.00 | 0.00 | 0.00 | 46 | 1056.6 |
| 20260902101937 | 85 | 122 | 4.0 | 9.0 | 0.00 | 0.00 | 0.00 | 47 | 1056.6 |
| 20260902101433 | 85 | 216 | 4.0 | 8.0 | 0.00 | 0.00 | 0.00 | 46 | 1056.6 |
| 20260902101419 | 85 | 137 | 4.0 | 9.0 | 0.00 | 0.00 | 0.00 | 46 | 1056.6 |
| 20260902101151 | 85 | 126 | 4.0 | 9.0 | 0.00 | 0.00 | 0.00 | 49 | 1056.6 |
| 20260902100823 | 85 | 130 | 4.0 | 9.0 | 0.00 | 0.00 | 0.00 | 50 | 1056.6 |
| 20260902100805 | 85 | 178 | 4.0 | 9.0 | 0.00 | 0.00 | 0.00 | 50 | 1056.6 |
| 20260902100723 | 85 | 179 | 4.0 | 10.0 | 0.00 | 0.00 | 0.00 | 51 | 1056.6 |
| 20260902100620 | 85 | 180 | 4.0 | 10.0 | 0.00 | 0.00 | 0.00 | 51 | 1056.6 |
| 20260902100520 | 85 | 181 | 4.0 | 10.0 | 0.00 | 0.00 | 0.00 | 50 | 1056.6 |
| 20260902100418 | 85 | 121 | 4.0 | 10.0 | 0.00 | 0.00 | 0.00 | 50 | 1056.6 |
| 20260902100317 | 85 | 120 | 4.0 | 10.0 | 0.00 | 0.00 | 0.00 | 50 | 1056.6 |
| 20260902100304 | 85 | 121 | 4.0 | 10.0 | 0.00 | 0.00 | 0.00 | 50 | 1056.6 |
| 20260902100215 | 85 | 137 | 4.0 | 10.0 | 0.00 | 0.00 | 0.00 | 50 | 1056.6 |
| 20260902100113 | 85 | 155 | 3.0 | 10.0 | 0.00 | 0.00 | 0.00 | 50 | 1056.7 |
| 20260902100011 | 85 | 154 | 3.0 | 10.0 | 0.00 | 0.00 | 0.00 | 51 | 1056.7 |
| 20260902095912 | 85 | 156 | 3.0 | 10.0 | 0.00 | 0.00 | 0.00 | 51 | 1056.7 |
| 20260902095812 | 85 | 164 | 3.0 | 10.0 | 0.00 | 0.00 | 0.00 | 51 | 1056.7 |
| 20260902095806 | 85 | 164 | 3.0 | 10.0 | 0.00 | 0.00 | 0.00 | 51 | 1056.6 |
| 20260902095756 | 85 | 93 | 3.0 | 7.0 | 0.00 | 0.00 | 0.00 | 52 | 1056.6 |
| 20260902095748 | 84 | 91 | 3.0 | 7.0 | 0.00 | 0.00 | 0.00 | 51 | 1056.6 |
| 20260902095734 | 84 | 83 | 3.0 | 7.0 | 0.00 | 0.00 | 0.00 | 51 | 1056.6 |
| 20260902095725 | 84 | 82 | 4.0 | 7.0 | 0.00 | 0.00 | 0.00 | 51 | 1056.6 |
| 20260902095457 | 84 | 81 | 4.0 | 7.0 | 0.00 | 0.00 | 0.00 | 52 | 1056.6 |
| 20260902095445 | 84 | 81 | 4.0 | 8.0 | 0.00 | 0.00 | 0.00 | 51 | 1056.6 |
| 20260902094933 | 84 | 131 | 5.0 | 10.0 | 0.00 | 0.00 | 0.00 | 52 | 1056.7 |
| 20260902094912 | 84 | 110 | 5.0 | 10.0 | 0.00 | 0.00 | 0.00 | 51 | 1056.6 |
| 20260902094900 | 84 | 73 | 5.0 | 10.0 | 0.00 | 0.00 | 0.00 | 51 | 1056.6 |
| 20260902094850 | 84 | 108 | 5.0 | 10.0 | 0.00 | 0.00 | 0.00 | 50 | 1056.6 |
| 20260902094836 | 84 | 108 | 5.0 | 10.0 | 0.00 | 0.00 | 0.00 | 51 | 1056.6 |
| 20260902094827 | 84 | 108 | 4.0 | 10.0 | 0.00 | 0.00 | 0.00 | 51 | 1056.6 |
| 20260902094813 | 85 | 105 | 4.0 | 10.0 | 0.00 | 0.00 | 0.00 | 51 | 1056.7 |
| 20260902094058 | 85 | 120 | 3.0 | 9.0 | 0.00 | 0.00 | 0.00 | 52 | 1056.6 |
| 20260902094046 | 84 | 127 | 3.0 | 8.0 | 0.00 | 0.00 | 0.00 | 52 | 1056.6 |
| 20260902093821 | 84 | 127 | 3.0 | 8.0 | 0.00 | 0.00 | 0.00 | 51 | 1056.6 |
| 20260902093809 | 84 | 127 | 3.0 | 9.0 | 0.00 | 0.00 | 0.00 | 52 | 1056.6 |
| 20260902093759 | 84 | 128 | 4.0 | 9.0 | 0.00 | 0.00 | 0.00 | 52 | 1056.6 |
| 20260902093521 | 84 | 129 | 3.0 | 9.0 | 0.00 | 0.00 | 0.00 | 51 | 1056.6 |
| 20260902093201 | 84 | 160 | 4.0 | 9.0 | 0.00 | 0.00 | 0.00 | 52 | 1056.5 |
| 20260902093102 | 84 | 156 | 4.0 | 9.0 | 0.00 | 0.00 | 0.00 | 51 | 1056.5 |
| 20260902093000 | 84 | 156 | 4.0 | 9.0 | 0.00 | 0.00 | 0.00 | 52 | 1056.5 |
| 20260902092857 | 84 | 156 | 4.0 | 9.0 | 0.00 | 0.00 | 0.00 | 51 | 1056.6 |
| 20260902092809 | 84 | 134 | 4.0 | 9.0 | 0.00 | 0.00 | 0.00 | 50 | 1056.6 |
| 20260902092752 | 84 | 133 | 4.0 | 9.0 | 0.00 | 0.00 | 0.00 | 50 | 1056.6 |
| 20260902092704 | 84 | 131 | 4.0 | 9.0 | 0.00 | 0.00 | 0.00 | 52 | 1056.6 |
| 20260902092655 | 84 | 137 | 4.0 | 8.0 | 0.00 | 0.00 | 0.00 | 50 | 1056.5 |
| 20260902092637 | 84 | 81 | 4.0 | 8.0 | 0.00 | 0.00 | 0.00 | 51 | 1056.5 |
| 20260902092409 | 85 | 77 | 4.0 | 8.0 | 0.00 | 0.00 | 0.00 | 52 | 1056.5 |
| 20260902092403 | 85 | 63 | 4.0 | 8.0 | 0.00 | 0.00 | 0.00 | 52 | 1056.5 |
| 20260902092041 | 84 | 88 | 3.0 | 8.0 | 0.00 | 0.00 | 0.00 | 53 | 1056.6 |
| 20260902091942 | 84 | 136 | 3.0 | 8.0 | 0.00 | 0.00 | 0.00 | 52 | 1056.5 |
| 20260902091841 | 84 | 116 | 3.0 | 8.0 | 0.00 | 0.00 | 0.00 | 53 | 1056.6 |
| 20260902091804 | 84 | 116 | 3.0 | 8.0 | 0.00 | 0.00 | 0.00 | 54 | 1056.5 |
| 20260902091736 | 84 | 114 | 3.0 | 8.0 | 0.00 | 0.00 | 0.00 | 54 | 1056.5 |
| 20260902091635 | 85 | 101 | 3.0 | 8.0 | 0.00 | 0.00 | 0.00 | 53 | 1056.5 |
| 20260902091605 | 85 | 101 | 3.0 | 8.0 | 0.00 | 0.00 | 0.00 | 52 | 1056.5 |
| 20260902091543 | 85 | 110 | 3.0 | 9.0 | 0.00 | 0.00 | 0.00 | 52 | 1056.5 |
| 20260902091529 | 85 | 75 | 3.0 | 9.0 | 0.00 | 0.00 | 0.00 | 53 | 1056.5 |
| 20260902091520 | 85 | 36 | 3.0 | 9.0 | 0.00 | 0.00 | 0.00 | 53 | 1056.4 |
| 20260902091256 | 85 | 100 | 3.0 | 9.0 | 0.00 | 0.00 | 0.00 | 52 | 1056.4 |
| 20260902090927 | 85 | 85 | 4.0 | 9.0 | 0.00 | 0.00 | 0.00 | 51 | 1056.5 |
| 20260902090825 | 85 | 70 | 4.0 | 9.0 | 0.00 | 0.00 | 0.00 | 51 | 1056.4 |
| 20260902090803 | 85 | 70 | 4.0 | 9.0 | 0.00 | 0.00 | 0.00 | 51 | 1056.5 |
| 20260902090747 | 85 | 70 | 4.0 | 9.0 | 0.00 | 0.00 | 0.00 | 52 | 1056.5 |
| 20260902090739 | 85 | 70 | 4.0 | 9.0 | 0.00 | 0.00 | 0.00 | 51 | 1056.4 |
| 20260902090420 | 85 | 82 | 3.0 | 8.0 | 0.00 | 0.00 | 0.00 | 56 | 1056.4 |
| 20260902090319 | 85 | 86 | 3.0 | 8.0 | 0.00 | 0.00 | 0.00 | 58 | 1056.5 |
| 20260902090304 | 85 | 86 | 3.0 | 8.0 | 0.00 | 0.00 | 0.00 | 58 | 1056.4 |
| 20260902090216 | 85 | 43 | 3.0 | 8.0 | 0.00 | 0.00 | 0.00 | 57 | 1056.4 |
| 20260902090115 | 85 | 311 | 3.0 | 8.0 | 0.00 | 0.00 | 0.00 | 57 | 1056.4 |
| 20260902090016 | 85 | 312 | 3.0 | 8.0 | 0.00 | 0.00 | 0.00 | 58 | 1056.4 |
| 20260902085950 | 85 | 311 | 3.0 | 8.0 | 0.00 | 0.00 | 0.00 | 57 | 1056.4 |
| 20260902085940 | 84 | 338 | 3.0 | 8.0 | 0.00 | 0.00 | 0.00 | 58 | 1056.4 |
| 20260902085933 | 84 | 337 | 3.0 | 8.0 | 0.00 | 0.00 | 0.00 | 58 | 1056.4 |
| 20260902085607 | 84 | 4 | 3.0 | 7.0 | 0.00 | 0.00 | 0.00 | 58 | 1056.4 |
| 20260902085506 | 84 | 354 | 3.0 | 7.0 | 0.00 | 0.00 | 0.00 | 59 | 1056.4 |
| 20260902085404 | 84 | 359 | 3.0 | 7.0 | 0.00 | 0.00 | 0.00 | 60 | 1056.4 |
| 20260902085306 | 84 | 335 | 3.0 | 7.0 | 0.00 | 0.00 | 0.00 | 60 | 1056.3 |
| 20260902085236 | 84 | 335 | 3.0 | 7.0 | 0.00 | 0.00 | 0.00 | 59 | 1056.3 |
| 20260902085228 | 84 | 359 | 3.0 | 7.0 | 0.00 | 0.00 | 0.00 | 60 | 1056.3 |
| 20260902084944 | 84 | 339 | 2.0 | 8.0 | 0.00 | 0.00 | 0.00 | 60 | 1056.3 |
| 20260902084930 | 83 | 328 | 2.0 | 8.0 | 0.00 | 0.00 | 0.00 | 60 | 1056.3 |
| 20260902084604 | 83 | 4 | 2.0 | 8.0 | 0.00 | 0.00 | 0.00 | 61 | 1056.3 |
| 20260902084553 | 83 | 48 | 3.0 | 8.0 | 0.00 | 0.00 | 0.00 | 61 | 1056.3 |
| 20260902084544 | 83 | 46 | 3.0 | 8.0 | 0.00 | 0.00 | 0.00 | 61 | 1056.2 |
| 20260902084529 | 83 | 291 | 3.0 | 8.0 | 0.00 | 0.00 | 0.00 | 61 | 1056.3 |
| 20260902084300 | 83 | 291 | 3.0 | 8.0 | 0.00 | 0.00 | 0.00 | 61 | 1056.2 |
| 20260902084246 | 83 | 359 | 4.0 | 8.0 | 0.00 | 0.00 | 0.00 | 61 | 1056.3 |
| 20260902084236 | 83 | 359 | 4.0 | 8.0 | 0.00 | 0.00 | 0.00 | 62 | 1056.3 |
| 20260902083957 | 83 | 359 | 3.0 | 8.0 | 0.00 | 0.00 | 0.00 | 62 | 1056.1 |
| 20260902083945 | 83 | 320 | 3.0 | 8.0 | 0.00 | 0.00 | 0.00 | 62 | 1056.2 |
| 20260902083403 | 83 | 339 | 3.0 | 9.0 | 0.00 | 0.00 | 0.00 | 62 | 1056.1 |
| 20260902083306 | 83 | 324 | 3.0 | 9.0 | 0.00 | 0.00 | 0.00 | 62 | 1056.1 |
| 20260902083203 | 83 | 312 | 3.0 | 9.0 | 0.00 | 0.00 | 0.00 | 62 | 1056.1 |
| 20260902083104 | 82 | 354 | 3.0 | 9.0 | 0.00 | 0.00 | 0.00 | 64 | 1056.1 |
| 20260902083004 | 82 | 116 | 3.0 | 9.0 | 0.00 | 0.00 | 0.00 | 64 | 1056.1 |
| 20260902082903 | 82 | 354 | 3.0 | 9.0 | 0.00 | 0.00 | 0.00 | 65 | 1056.2 |
| 20260902082805 | 82 | 304 | 3.0 | 9.0 | 0.00 | 0.00 | 0.00 | 65 | 1056.1 |
| 20260902082704 | 82 | 304 | 3.0 | 9.0 | 0.00 | 0.00 | 0.00 | 66 | 1056.1 |
| 20260902082604 | 82 | 339 | 3.0 | 9.0 | 0.00 | 0.00 | 0.00 | 66 | 1056.1 |
| 20260902082504 | 82 | 341 | 3.0 | 9.0 | 0.00 | 0.00 | 0.00 | 66 | 1056.0 |
| 20260902082403 | 82 | 291 | 2.0 | 7.0 | 0.00 | 0.00 | 0.00 | 66 | 1056.0 |
| 20260902082336 | 82 | 331 | 3.0 | 6.0 | 0.00 | 0.00 | 0.00 | 67 | 1056.0 |
| 20260902082324 | 82 | 315 | 3.0 | 8.0 | 0.00 | 0.00 | 0.00 | 67 | 1056.0 |
| 20260902082312 | 81 | 354 | 3.0 | 8.0 | 0.00 | 0.00 | 0.00 | 68 | 1056.0 |
| 20260902082308 | 81 | 354 | 3.0 | 8.0 | 0.00 | 0.00 | 0.00 | 68 | 1056.0 |
| 20260902081809 | 81 | 11 | 4.0 | 8.0 | 0.00 | 0.00 | 0.00 | 69 | 1055.8 |
| 20260902081704 | 81 | 11 | 4.0 | 8.0 | 0.00 | 0.00 | 0.00 | 69 | 1055.8 |
| 20260902081603 | 81 | 11 | 4.0 | 9.0 | 0.00 | 0.00 | 0.00 | 69 | 1055.8 |
| 20260902081504 | 81 | 346 | 4.0 | 9.0 | 0.00 | 0.00 | 0.00 | 68 | 1055.8 |
| 20260902081403 | 81 | 313 | 4.0 | 9.0 | 0.00 | 0.00 | 0.00 | 68 | 1056.0 |
| 20260902081326 | 80 | 291 | 4.0 | 9.0 | 0.00 | 0.00 | 0.00 | 69 | 1056.0 |
| 20260902081315 | 80 | 354 | 4.0 | 10.0 | 0.00 | 0.00 | 0.00 | 69 | 1056.0 |
| 20260902081302 | 80 | 349 | 4.0 | 10.0 | 0.00 | 0.00 | 0.00 | 69 | 1055.8 |
| 20260902081253 | 80 | 343 | 4.0 | 11.0 | 0.00 | 0.00 | 0.00 | 69 | 1055.8 |
| 20260902081019 | 80 | 312 | 4.0 | 11.0 | 0.00 | 0.00 | 0.00 | 69 | 1056.0 |
| 20260902080706 | 80 | 324 | 4.0 | 11.0 | 0.00 | 0.00 | 0.00 | 70 | 1055.8 |
| 20260902080605 | 80 | 359 | 4.0 | 11.0 | 0.00 | 0.00 | 0.00 | 70 | 1055.8 |
| 20260902080504 | 80 | 341 | 4.0 | 11.0 | 0.00 | 0.00 | 0.00 | 70 | 1055.8 |
| 20260902080404 | 80 | 328 | 4.0 | 11.0 | 0.00 | 0.00 | 0.00 | 70 | 1056.0 |
| 20260902080343 | 80 | 354 | 4.0 | 11.0 | 0.00 | 0.00 | 0.00 | 70 | 1056.0 |
| 20260902080332 | 80 | 328 | 3.0 | 11.0 | 0.00 | 0.00 | 0.00 | 71 | 1056.0 |
| 20260902080320 | 80 | 330 | 3.0 | 11.0 | 0.00 | 0.00 | 0.00 | 71 | 1056.0 |
| 20260902080038 | 79 | 12 | 3.0 | 9.0 | 0.00 | 0.00 | 0.00 | 71 | 1055.8 |
| 20260902075806 | 79 | 23 | 3.0 | 9.0 | 0.00 | 0.00 | 0.00 | 71 | 1055.8 |
| 20260902075703 | 79 | 12 | 3.0 | 9.0 | 0.00 | 0.00 | 0.00 | 71 | 1055.8 |
| 20260902075604 | 79 | 305 | 3.0 | 9.0 | 0.00 | 0.00 | 0.00 | 72 | 1055.8 |
| 20260902075544 | 79 | 275 | 3.0 | 9.0 | 0.00 | 0.00 | 0.00 | 72 | 1055.8 |
| 20260902075535 | 79 | 272 | 3.0 | 9.0 | 0.00 | 0.00 | 0.00 | 72 | 1055.8 |
| 20260902075518 | 79 | 279 | 3.0 | 9.0 | 0.00 | 0.00 | 0.00 | 72 | 1055.8 |
| 20260902075203 | 79 | 278 | 3.0 | 9.0 | 0.00 | 0.00 | 0.00 | 73 | 1055.8 |
| 20260902075103 | 79 | 266 | 2.0 | 9.0 | 0.00 | 0.00 | 0.00 | 73 | 1056.0 |
| 20260902075042 | 79 | 267 | 2.0 | 9.0 | 0.00 | 0.00 | 0.00 | 73 | 1055.8 |
| 20260902075033 | 79 | 290 | 2.0 | 9.0 | 0.00 | 0.00 | 0.00 | 73 | 1056.0 |
| 20260902074807 | 79 | 334 | 2.0 | 8.0 | 0.00 | 0.00 | 0.00 | 73 | 1055.8 |
| 20260902074735 | 79 | 318 | 2.0 | 7.0 | 0.00 | 0.00 | 0.00 | 74 | 1055.8 |
| 20260902074727 | 78 | 318 | 2.0 | 7.0 | 0.00 | 0.00 | 0.00 | 73 | 1055.8 |
| 20260902074403 | 78 | 318 | 2.0 | 7.0 | 0.00 | 0.00 | 0.00 | 74 | 1055.8 |
| 20260902074337 | 78 | 291 | 1.0 | 6.0 | 0.00 | 0.00 | 0.00 | 74 | 1055.8 |
| 20260902074326 | 78 | 326 | 1.0 | 6.0 | 0.00 | 0.00 | 0.00 | 75 | 1055.8 |
| 20260902074049 | 78 | 329 | 2.0 | 6.0 | 0.00 | 0.00 | 0.00 | 76 | 1056.0 |
| 20260902074040 | 78 | 268 | 2.0 | 6.0 | 0.00 | 0.00 | 0.00 | 76 | 1055.8 |
| 20260902073809 | 77 | 267 | 2.0 | 6.0 | 0.00 | 0.00 | 0.00 | 77 | 1055.8 |
| 20260902073703 | 77 | 267 | 2.0 | 6.0 | 0.00 | 0.00 | 0.00 | 77 | 1056.0 |
| 20260902073603 | 77 | 267 | 2.0 | 6.0 | 0.00 | 0.00 | 0.00 | 77 | 1056.0 |
| 20260902073503 | 77 | 268 | 2.0 | 6.0 | 0.00 | 0.00 | 0.00 | 77 | 1055.8 |
| 20260902073404 | 77 | 259 | 2.0 | 4.0 | 0.00 | 0.00 | 0.00 | 78 | 1056.0 |
| 20260902073306 | 76 | 258 | 2.0 | 6.0 | 0.00 | 0.00 | 0.00 | 78 | 1056.0 |
| 20260902073204 | 76 | 258 | 2.0 | 6.0 | 0.00 | 0.00 | 0.00 | 78 | 1056.0 |
| 20260902073103 | 76 | 273 | 2.0 | 6.0 | 0.00 | 0.00 | 0.00 | 79 | 1056.0 |
| 20260902073003 | 76 | 273 | 2.0 | 6.0 | 0.00 | 0.00 | 0.00 | 79 | 1056.0 |
| 20260902072904 | 76 | 270 | 2.0 | 6.0 | 0.00 | 0.00 | 0.00 | 79 | 1056.0 |
| 20260902072807 | 76 | 270 | 2.0 | 6.0 | 0.00 | 0.00 | 0.00 | 79 | 1056.0 |
| 20260902072703 | 76 | 271 | 2.0 | 6.0 | 0.00 | 0.00 | 0.00 | 80 | 1056.0 |
| 20260902072603 | 76 | 271 | 3.0 | 6.0 | 0.00 | 0.00 | 0.00 | 80 | 1056.0 |
| 20260902072548 | 75 | 271 | 3.0 | 6.0 | 0.00 | 0.00 | 0.00 | 80 | 1056.0 |
| 20260902072539 | 75 | 270 | 3.0 | 7.0 | 0.00 | 0.00 | 0.00 | 80 | 1056.0 |
| 20260902072521 | 75 | 270 | 3.0 | 7.0 | 0.00 | 0.00 | 0.00 | 80 | 1056.0 |
| 20260902072203 | 75 | 268 | 3.0 | 7.0 | 0.00 | 0.00 | 0.00 | 80 | 1056.0 |
| 20260902072104 | 75 | 268 | 3.0 | 7.0 | 0.00 | 0.00 | 0.00 | 80 | 1056.0 |
| 20260902072049 | 75 | 264 | 3.0 | 8.0 | 0.00 | 0.00 | 0.00 | 81 | 1056.0 |
| 20260902072040 | 75 | 264 | 3.0 | 8.0 | 0.00 | 0.00 | 0.00 | 81 | 1056.0 |
| 20260902071806 | 75 | 272 | 3.0 | 8.0 | 0.00 | 0.00 | 0.00 | 81 | 1056.0 |
| 20260902071733 | 75 | 250 | 3.0 | 8.0 | 0.00 | 0.00 | 0.00 | 81 | 1056.0 |
| 20260902071725 | 74 | 273 | 3.0 | 8.0 | 0.00 | 0.00 | 0.00 | 81 | 1056.0 |
| 20260902071405 | 74 | 268 | 3.0 | 8.0 | 0.00 | 0.00 | 0.00 | 81 | 1056.0 |
| 20260902071306 | 74 | 262 | 3.0 | 8.0 | 0.00 | 0.00 | 0.00 | 81 | 1056.0 |
| 20260902071204 | 74 | 261 | 3.0 | 8.0 | 0.00 | 0.00 | 0.00 | 81 | 1056.0 |
| 20260902071103 | 74 | 257 | 3.0 | 8.0 | 0.00 | 0.00 | 0.00 | 81 | 1056.0 |
| 20260902071004 | 74 | 285 | 3.0 | 7.0 | 0.00 | 0.00 | 0.00 | 82 | 1056.0 |
| 20260902070904 | 74 | 283 | 3.0 | 7.0 | 0.00 | 0.00 | 0.00 | 82 | 1056.0 |
| 20260902070806 | 74 | 291 | 3.0 | 7.0 | 0.00 | 0.00 | 0.00 | 82 | 1056.0 |
| 20260902070703 | 74 | 264 | 2.0 | 7.0 | 0.00 | 0.00 | 0.00 | 82 | 1056.0 |
| 20260902070603 | 74 | 266 | 2.0 | 7.0 | 0.00 | 0.00 | 0.00 | 82 | 1056.0 |
| 20260902070504 | 74 | 268 | 2.0 | 7.0 | 0.00 | 0.00 | 0.00 | 82 | 1056.0 |
| 20260902070445 | 74 | 256 | 2.0 | 6.0 | 0.00 | 0.00 | 0.00 | 82 | 1056.0 |
| 20260902070431 | 74 | 274 | 2.0 | 6.0 | 0.00 | 0.00 | 0.00 | 83 | 1056.0 |
| 20260902070138 | 73 | 280 | 2.0 | 6.0 | 0.00 | 0.00 | 0.00 | 83 | 1056.0 |
| 20260902070130 | 73 | 280 | 2.0 | 6.0 | 0.00 | 0.00 | 0.00 | 83 | 1056.0 |
| 20260902065805 | 73 | 280 | 2.0 | 8.0 | 0.00 | 0.00 | 0.00 | 83 | 1056.0 |
| 20260902065703 | 73 | 280 | 3.0 | 8.0 | 0.00 | 0.00 | 0.00 | 83 | 1056.0 |
| 20260902065613 | 73 | 279 | 3.0 | 8.0 | 0.00 | 0.00 | 0.00 | 83 | 1056.0 |
| 20260902065605 | 73 | 310 | 3.0 | 8.0 | 0.00 | 0.00 | 0.00 | 84 | 1055.8 |
| 20260902065555 | 73 | 280 | 2.0 | 8.0 | 0.00 | 0.00 | 0.00 | 84 | 1055.8 |
| 20260902065539 | 73 | 322 | 2.0 | 8.0 | 0.00 | 0.00 | 0.00 | 84 | 1056.0 |
| 20260902065318 | 73 | 354 | 2.0 | 8.0 | 0.00 | 0.00 | 0.00 | 85 | 1055.8 |
| 20260902065310 | 72 | 283 | 2.0 | 8.0 | 0.00 | 0.00 | 0.00 | 85 | 1056.0 |
| 20260902065301 | 72 | 282 | 2.0 | 8.0 | 0.00 | 0.00 | 0.00 | 85 | 1055.8 |
| 20260902064801 | 72 | 326 | 3.0 | 8.0 | 0.00 | 0.00 | 0.00 | 85 | 1055.8 |
| 20260902064734 | 72 | 322 | 3.0 | 8.0 | 0.00 | 0.00 | 0.00 | 85 | 1055.8 |
| 20260902064725 | 72 | 318 | 3.0 | 10.0 | 0.00 | 0.00 | 0.00 | 86 | 1055.8 |
| 20260902064436 | 72 | 16 | 3.0 | 10.0 | 0.00 | 0.00 | 0.00 | 86 | 1055.8 |
| 20260902064425 | 71 | 16 | 3.0 | 10.0 | 0.00 | 0.00 | 0.00 | 86 | 1055.7 |
| 20260902064418 | 71 | 16 | 3.0 | 10.0 | 0.00 | 0.00 | 0.00 | 86 | 1055.7 |
| 20260902064128 | 71 | 15 | 3.0 | 10.0 | 0.00 | 0.00 | 0.00 | 86 | 1055.6 |
| 20260902064118 | 71 | 342 | 3.0 | 10.0 | 0.00 | 0.00 | 0.00 | 86 | 1055.6 |
| 20260902063807 | 71 | 300 | 3.0 | 10.0 | 0.00 | 0.00 | 0.00 | 86 | 1055.6 |
| 20260902063754 | 71 | 332 | 3.0 | 10.0 | 0.00 | 0.00 | 0.00 | 86 | 1055.6 |
| 20260902063651 | 71 | 336 | 2.0 | 10.0 | 0.00 | 0.00 | 0.00 | 86 | 1055.6 |
| 20260902063624 | 71 | 303 | 2.0 | 8.0 | 0.00 | 0.00 | 0.00 | 86 | 1055.6 |
| 20260902063610 | 71 | 302 | 2.0 | 8.0 | 0.00 | 0.00 | 0.00 | 87 | 1055.6 |
| 20260902063325 | 71 | 304 | 1.0 | 5.0 | 0.00 | 0.00 | 0.00 | 87 | 1055.6 |
| 20260902063318 | 70 | 305 | 1.0 | 4.0 | 0.00 | 0.00 | 0.00 | 87 | 1055.6 |
| 20260902063307 | 70 | 299 | 1.0 | 4.0 | 0.00 | 0.00 | 0.00 | 87 | 1055.6 |
| 20260902062946 | 70 | 298 | 1.0 | 4.0 | 0.00 | 0.00 | 0.00 | 87 | 1055.6 |
| 20260902062845 | 70 | 298 | 1.0 | 4.0 | 0.00 | 0.00 | 0.00 | 87 | 1055.6 |
| 20260902062804 | 70 | 298 | 1.0 | 4.0 | 0.00 | 0.00 | 0.00 | 87 | 1055.6 |
| 20260902062745 | 70 | 298 | 1.0 | 4.0 | 0.00 | 0.00 | 0.00 | 87 | 1055.6 |
| 20260902062646 | 70 | 298 | 1.0 | 4.0 | 0.00 | 0.00 | 0.00 | 87 | 1055.5 |
| 20260902062545 | 70 | 298 | 1.0 | 4.0 | 0.00 | 0.00 | 0.00 | 87 | 1055.6 |
| 20260902062447 | 70 | 299 | 1.0 | 5.0 | 0.00 | 0.00 | 0.00 | 87 | 1055.6 |
| 20260902062345 | 70 | 299 | 2.0 | 5.0 | 0.00 | 0.00 | 0.00 | 88 | 1055.6 |
| 20260902062319 | 69 | 299 | 2.0 | 7.0 | 0.00 | 0.00 | 0.00 | 88 | 1055.6 |
| 20260902062312 | 69 | 299 | 2.0 | 7.0 | 0.00 | 0.00 | 0.00 | 88 | 1055.6 |
| 20260902062300 | 69 | 299 | 2.0 | 7.0 | 0.00 | 0.00 | 0.00 | 88 | 1055.6 |
| 20260902062247 | 69 | 349 | 3.0 | 9.0 | 0.00 | 0.00 | 0.00 | 88 | 1055.6 |
| 20260902062238 | 69 | 324 | 3.0 | 9.0 | 0.00 | 0.00 | 0.00 | 88 | 1055.5 |
| 20260902062229 | 69 | 325 | 3.0 | 9.0 | 0.00 | 0.00 | 0.00 | 88 | 1055.6 |
| 20260902061955 | 69 | 324 | 4.0 | 9.0 | 0.00 | 0.00 | 0.00 | 88 | 1055.5 |
| 20260902061942 | 69 | 324 | 4.0 | 10.0 | 0.00 | 0.00 | 0.00 | 88 | 1055.6 |
| 20260902061710 | 69 | 310 | 4.0 | 10.0 | 0.00 | 0.00 | 0.00 | 89 | 1055.6 |
| 20260902061441 | 69 | 329 | 4.0 | 10.0 | 0.00 | 0.00 | 0.00 | 89 | 1055.5 |
| 20260902061429 | 69 | 4 | 4.0 | 10.0 | 0.00 | 0.00 | 0.00 | 89 | 1055.5 |
| 20260902061157 | 68 | 12 | 4.0 | 11.0 | 0.00 | 0.00 | 0.00 | 89 | 1055.5 |
| 20260902060835 | 68 | 17 | 5.0 | 11.0 | 0.00 | 0.00 | 0.00 | 89 | 1055.5 |
| 20260902060804 | 68 | 11 | 5.0 | 11.0 | 0.00 | 0.00 | 0.00 | 89 | 1055.5 |
| 20260902060733 | 68 | 330 | 5.0 | 11.0 | 0.00 | 0.00 | 0.00 | 89 | 1055.5 |
| 20260902060707 | 68 | 12 | 4.0 | 11.0 | 0.00 | 0.00 | 0.00 | 89 | 1055.5 |
| 20260902060657 | 68 | 354 | 4.0 | 11.0 | 0.00 | 0.00 | 0.00 | 89 | 1055.5 |
| 20260902060334 | 68 | 354 | 4.0 | 11.0 | 0.00 | 0.00 | 0.00 | 89 | 1055.4 |
| 20260902060304 | 68 | 354 | 4.0 | 11.0 | 0.00 | 0.00 | 0.00 | 89 | 1055.4 |
| 20260902060232 | 68 | 21 | 4.0 | 11.0 | 0.00 | 0.00 | 0.00 | 89 | 1055.4 |
| 20260902060201 | 68 | 9 | 4.0 | 11.0 | 0.00 | 0.00 | 0.00 | 89 | 1055.4 |
| 20260902060153 | 68 | 9 | 4.0 | 10.0 | 0.00 | 0.00 | 0.00 | 89 | 1055.4 |
| 20260902055916 | 68 | 331 | 4.0 | 10.0 | 0.00 | 0.00 | 0.00 | 89 | 1055.4 |
| 20260902055907 | 68 | 312 | 4.0 | 10.0 | 0.00 | 0.00 | 0.00 | 89 | 1055.4 |
| 20260902055857 | 68 | 328 | 4.0 | 10.0 | 0.00 | 0.00 | 0.00 | 89 | 1055.4 |
| 20260902055535 | 67 | 354 | 4.0 | 10.0 | 0.00 | 0.00 | 0.00 | 89 | 1055.3 |
| 20260902055428 | 67 | 345 | 4.0 | 10.0 | 0.00 | 0.00 | 0.00 | 90 | 1055.3 |
| 20260902055325 | 67 | 272 | 4.0 | 10.0 | 0.00 | 0.00 | 0.00 | 90 | 1055.3 |
| 20260902055306 | 67 | 337 | 5.0 | 10.0 | 0.00 | 0.00 | 0.00 | 90 | 1055.3 |
| 20260902055227 | 67 | 313 | 5.0 | 10.0 | 0.00 | 0.00 | 0.00 | 90 | 1055.3 |
| 20260902055147 | 67 | 359 | 5.0 | 10.0 | 0.00 | 0.00 | 0.00 | 90 | 1055.4 |
| 20260902055135 | 67 | 331 | 5.0 | 12.0 | 0.00 | 0.00 | 0.00 | 90 | 1055.2 |
| 20260902055121 | 67 | 292 | 5.0 | 12.0 | 0.00 | 0.00 | 0.00 | 90 | 1055.4 |
| 20260902055109 | 67 | 301 | 5.0 | 12.0 | 0.00 | 0.00 | 0.00 | 90 | 1055.3 |
| 20260902055101 | 67 | 297 | 5.0 | 12.0 | 0.00 | 0.00 | 0.00 | 90 | 1055.3 |
| 20260902054545 | 67 | 320 | 5.0 | 12.0 | 0.00 | 0.00 | 0.00 | 90 | 1055.3 |
| 20260902054536 | 67 | 313 | 5.0 | 12.0 | 0.00 | 0.00 | 0.00 | 90 | 1055.3 |
| 20260902054519 | 67 | 313 | 5.0 | 12.0 | 0.00 | 0.00 | 0.00 | 90 | 1055.3 |
| 20260902054220 | 67 | 280 | 4.0 | 12.0 | 0.00 | 0.00 | 0.00 | 91 | 1055.2 |
| 20260902054120 | 67 | 291 | 4.0 | 12.0 | 0.00 | 0.00 | 0.00 | 91 | 1055.2 |
| 20260902054023 | 67 | 303 | 4.0 | 10.0 | 0.00 | 0.00 | 0.00 | 91 | 1055.2 |
| 20260902053951 | 67 | 308 | 4.0 | 9.0 | 0.00 | 0.00 | 0.00 | 91 | 1055.3 |
| 20260902053941 | 67 | 294 | 3.0 | 9.0 | 0.00 | 0.00 | 0.00 | 91 | 1055.3 |
| 20260902053934 | 67 | 301 | 3.0 | 9.0 | 0.00 | 0.00 | 0.00 | 91 | 1055.3 |
| 20260902053926 | 67 | 302 | 3.0 | 9.0 | 0.00 | 0.00 | 0.00 | 91 | 1055.3 |
| 20260902053918 | 67 | 272 | 3.0 | 7.0 | 0.00 | 0.00 | 0.00 | 91 | 1055.2 |
| 20260902053905 | 67 | 271 | 3.0 | 7.0 | 0.00 | 0.00 | 0.00 | 90 | 1055.3 |
| 20260902053631 | 67 | 262 | 3.0 | 7.0 | 0.00 | 0.00 | 0.00 | 90 | 1055.3 |
| 20260902053405 | 67 | 278 | 3.0 | 7.0 | 0.00 | 0.00 | 0.00 | 90 | 1055.3 |
| 20260902053354 | 67 | 276 | 3.0 | 7.0 | 0.00 | 0.00 | 0.00 | 90 | 1055.3 |
| 20260902052845 | 67 | 313 | 3.0 | 6.0 | 0.00 | 0.00 | 0.00 | 90 | 1055.3 |
| 20260902052836 | 67 | 267 | 2.0 | 6.0 | 0.00 | 0.00 | 0.00 | 91 | 1055.3 |
| 20260902052507 | 66 | 268 | 2.0 | 6.0 | 0.00 | 0.00 | 0.00 | 91 | 1055.3 |
| 20260902052407 | 66 | 269 | 2.0 | 6.0 | 0.00 | 0.00 | 0.00 | 91 | 1055.3 |
| 20260902052306 | 66 | 274 | 2.0 | 6.0 | 0.00 | 0.00 | 0.00 | 91 | 1055.3 |
| 20260902052208 | 66 | 273 | 2.0 | 6.0 | 0.00 | 0.00 | 0.00 | 91 | 1055.3 |
| 20260902052107 | 66 | 273 | 2.0 | 6.0 | 0.00 | 0.00 | 0.00 | 91 | 1055.3 |
| 20260902052034 | 66 | 273 | 2.0 | 6.0 | 0.00 | 0.00 | 0.00 | 91 | 1055.3 |
| 20260902052023 | 66 | 274 | 2.0 | 6.0 | 0.00 | 0.00 | 0.00 | 91 | 1055.4 |
| 20260902052002 | 66 | 272 | 2.0 | 7.0 | 0.00 | 0.00 | 0.00 | 91 | 1055.3 |
| 20260902051955 | 66 | 273 | 2.0 | 7.0 | 0.00 | 0.00 | 0.00 | 91 | 1055.3 |
| 20260902051726 | 66 | 272 | 3.0 | 7.0 | 0.00 | 0.00 | 0.00 | 91 | 1055.4 |
| 20260902051404 | 66 | 272 | 3.0 | 7.0 | 0.00 | 0.00 | 0.00 | 91 | 1055.3 |
| 20260902051305 | 66 | 272 | 3.0 | 7.0 | 0.00 | 0.00 | 0.00 | 91 | 1055.3 |
| 20260902051221 | 66 | 272 | 3.0 | 7.0 | 0.00 | 0.00 | 0.00 | 91 | 1055.3 |
| 20260902051213 | 66 | 272 | 3.0 | 7.0 | 0.00 | 0.00 | 0.00 | 91 | 1055.2 |
| 20260902051200 | 66 | 272 | 3.0 | 7.0 | 0.00 | 0.00 | 0.00 | 91 | 1055.3 |
| 20260902051150 | 66 | 272 | 3.0 | 7.0 | 0.00 | 0.00 | 0.00 | 91 | 1055.3 |
| 20260902050927 | 66 | 272 | 3.0 | 7.0 | 0.00 | 0.00 | 0.00 | 91 | 1055.2 |
| 20260902050602 | 66 | 274 | 2.0 | 7.0 | 0.00 | 0.00 | 0.00 | 91 | 1055.2 |
| 20260902050507 | 66 | 272 | 2.0 | 7.0 | 0.00 | 0.00 | 0.00 | 91 | 1055.2 |
| 20260902050446 | 66 | 270 | 2.0 | 4.0 | 0.00 | 0.00 | 0.00 | 91 | 1055.2 |
| 20260902050438 | 66 | 270 | 2.0 | 4.0 | 0.00 | 0.00 | 0.00 | 91 | 1055.2 |
| 20260902050100 | 66 | 270 | 2.0 | 4.0 | 0.00 | 0.00 | 0.00 | 91 | 1055.2 |
| 20260902050050 | 66 | 269 | 2.0 | 4.0 | 0.00 | 0.00 | 0.00 | 91 | 1055.1 |
| 20260902050016 | 65 | 270 | 2.0 | 4.0 | 0.00 | 0.00 | 0.00 | 91 | 1055.1 |
| 20260902045655 | 65 | 269 | 2.0 | 4.0 | 0.00 | 0.00 | 0.00 | 91 | 1055.1 |
| 20260902045556 | 65 | 270 | 2.0 | 4.0 | 0.00 | 0.00 | 0.00 | 91 | 1055.1 |
| 20260902045456 | 65 | 270 | 3.0 | 4.0 | 0.00 | 0.00 | 0.00 | 91 | 1055.1 |
| 20260902045358 | 65 | 269 | 3.0 | 4.0 | 0.00 | 0.00 | 0.00 | 91 | 1055.1 |
| 20260902045306 | 65 | 269 | 3.0 | 4.0 | 0.00 | 0.00 | 0.00 | 91 | 1055.1 |
| 20260902045255 | 65 | 269 | 3.0 | 4.0 | 0.00 | 0.00 | 0.00 | 91 | 1055.1 |
| 20260902045156 | 65 | 269 | 3.0 | 4.0 | 0.00 | 0.00 | 0.00 | 91 | 1055.1 |
| 20260902045124 | 65 | 269 | 2.0 | 4.0 | 0.00 | 0.00 | 0.00 | 91 | 1055.1 |
| 20260902045116 | 65 | 269 | 2.0 | 4.0 | 0.00 | 0.00 | 0.00 | 91 | 1055.0 |
| 20260902044801 | 65 | 269 | 3.0 | 4.0 | 0.00 | 0.00 | 0.00 | 90 | 1055.0 |
| 20260902044747 | 65 | 269 | 3.0 | 4.0 | 0.00 | 0.00 | 0.00 | 90 | 1055.0 |
| 20260902044647 | 65 | 269 | 3.0 | 6.0 | 0.00 | 0.00 | 0.00 | 90 | 1055.0 |
| 20260902044548 | 65 | 269 | 3.0 | 6.0 | 0.00 | 0.00 | 0.00 | 90 | 1055.0 |
| 20260902044448 | 65 | 270 | 3.0 | 6.0 | 0.00 | 0.00 | 0.00 | 90 | 1054.9 |
| 20260902044348 | 65 | 269 | 2.0 | 6.0 | 0.00 | 0.00 | 0.00 | 90 | 1055.0 |
| 20260902044301 | 65 | 270 | 3.0 | 6.0 | 0.00 | 0.00 | 0.00 | 90 | 1054.9 |
| 20260902044241 | 65 | 269 | 3.0 | 6.0 | 0.00 | 0.00 | 0.00 | 90 | 1054.9 |
| 20260902044141 | 65 | 269 | 3.0 | 6.0 | 0.00 | 0.00 | 0.00 | 90 | 1055.0 |
| 20260902044041 | 65 | 269 | 3.0 | 6.0 | 0.00 | 0.00 | 0.00 | 90 | 1054.9 |
| 20260902043942 | 65 | 270 | 3.0 | 6.0 | 0.00 | 0.00 | 0.00 | 90 | 1054.9 |
| 20260902043841 | 65 | 270 | 2.0 | 6.0 | 0.00 | 0.00 | 0.00 | 90 | 1055.0 |
| 20260902043738 | 65 | 269 | 2.0 | 6.0 | 0.00 | 0.00 | 0.00 | 90 | 1054.9 |
| 20260902043637 | 65 | 271 | 2.0 | 4.0 | 0.00 | 0.00 | 0.00 | 90 | 1054.9 |
| 20260902043543 | 65 | 270 | 2.0 | 4.0 | 0.00 | 0.00 | 0.00 | 90 | 1054.9 |
| 20260902043533 | 65 | 272 | 2.0 | 4.0 | 0.00 | 0.00 | 0.00 | 90 | 1054.9 |
| 20260902043520 | 65 | 270 | 2.0 | 4.0 | 0.00 | 0.00 | 0.00 | 90 | 1054.9 |
| 20260902043239 | 65 | 271 | 2.0 | 4.0 | 0.00 | 0.00 | 0.00 | 90 | 1054.9 |
| 20260902043133 | 66 | 271 | 2.0 | 4.0 | 0.00 | 0.00 | 0.00 | 90 | 1055.0 |
| 20260902043039 | 66 | 271 | 2.0 | 4.0 | 0.00 | 0.00 | 0.00 | 90 | 1055.0 |
| 20260902043029 | 65 | 271 | 2.0 | 4.0 | 0.00 | 0.00 | 0.00 | 90 | 1055.0 |
| 20260902043006 | 66 | 271 | 2.0 | 4.0 | 0.00 | 0.00 | 0.00 | 90 | 1055.0 |
| 20260902042957 | 66 | 270 | 2.0 | 4.0 | 0.00 | 0.00 | 0.00 | 90 | 1055.0 |
| 20260902042632 | 66 | 271 | 2.0 | 4.0 | 0.00 | 0.00 | 0.00 | 90 | 1055.1 |
| 20260902042547 | 66 | 271 | 2.0 | 4.0 | 0.00 | 0.00 | 0.00 | 90 | 1055.0 |
| 20260902042537 | 66 | 270 | 2.0 | 4.0 | 0.00 | 0.00 | 0.00 | 90 | 1055.0 |
| 20260902042520 | 66 | 270 | 2.0 | 4.0 | 0.00 | 0.00 | 0.00 | 90 | 1055.0 |
| 20260902042229 | 66 | 271 | 2.0 | 4.0 | 0.00 | 0.00 | 0.00 | 90 | 1055.0 |
| 20260902042200 | 66 | 270 | 3.0 | 4.0 | 0.00 | 0.00 | 0.00 | 90 | 1055.0 |
| 20260902042153 | 66 | 270 | 3.0 | 6.0 | 0.00 | 0.00 | 0.00 | 90 | 1055.0 |
| 20260902041829 | 66 | 271 | 3.0 | 6.0 | 0.00 | 0.00 | 0.00 | 90 | 1055.0 |
| 20260902041759 | 66 | 271 | 3.0 | 6.0 | 0.00 | 0.00 | 0.00 | 90 | 1055.0 |
| 20260902041729 | 66 | 271 | 3.0 | 6.0 | 0.00 | 0.00 | 0.00 | 90 | 1055.0 |
| 20260902041629 | 66 | 270 | 3.0 | 6.0 | 0.00 | 0.00 | 0.00 | 90 | 1055.1 |
| 20260902041521 | 66 | 270 | 3.0 | 6.0 | 0.00 | 0.00 | 0.00 | 90 | 1055.1 |
| 20260902041501 | 66 | 271 | 3.0 | 7.0 | 0.00 | 0.00 | 0.00 | 90 | 1055.1 |
| 20260902041452 | 66 | 270 | 4.0 | 7.0 | 0.00 | 0.00 | 0.00 | 90 | 1055.1 |
| 20260902041443 | 66 | 271 | 4.0 | 7.0 | 0.00 | 0.00 | 0.00 | 90 | 1055.0 |
| 20260902041122 | 66 | 270 | 4.0 | 7.0 | 0.00 | 0.00 | 0.00 | 90 | 1055.0 |
| 20260902041014 | 66 | 270 | 4.0 | 7.0 | 0.00 | 0.00 | 0.00 | 90 | 1055.0 |
| 20260902040916 | 66 | 271 | 4.0 | 7.0 | 0.00 | 0.00 | 0.00 | 90 | 1055.0 |
| 20260902040816 | 66 | 270 | 4.0 | 7.0 | 0.00 | 0.00 | 0.00 | 90 | 1055.0 |
| 20260902040740 | 66 | 270 | 4.0 | 7.0 | 0.00 | 0.00 | 0.00 | 90 | 1055.0 |
| 20260902040732 | 66 | 270 | 4.0 | 7.0 | 0.00 | 0.00 | 0.00 | 90 | 1055.0 |
| 20260902040412 | 66 | 268 | 4.0 | 6.0 | 0.00 | 0.00 | 0.00 | 90 | 1055.1 |
| 20260902040310 | 66 | 268 | 4.0 | 6.0 | 0.00 | 0.00 | 0.00 | 90 | 1055.1 |
| 20260902040253 | 66 | 268 | 4.0 | 6.0 | 0.00 | 0.00 | 0.00 | 90 | 1055.1 |
| 20260902040209 | 66 | 268 | 4.0 | 6.0 | 0.00 | 0.00 | 0.00 | 90 | 1055.0 |
| 20260902040132 | 66 | 268 | 4.0 | 6.0 | 0.00 | 0.00 | 0.00 | 90 | 1055.0 |
| 20260902040123 | 66 | 268 | 4.0 | 6.0 | 0.00 | 0.00 | 0.00 | 90 | 1055.0 |
| 20260902040111 | 66 | 268 | 4.0 | 6.0 | 0.00 | 0.00 | 0.00 | 90 | 1055.0 |
| 20260902040056 | 66 | 268 | 4.0 | 6.0 | 0.00 | 0.00 | 0.00 | 90 | 1055.0 |
| 20260902035832 | 66 | 268 | 3.0 | 6.0 | 0.00 | 0.00 | 0.00 | 91 | 1055.0 |
| 20260902035543 | 66 | 266 | 3.0 | 6.0 | 0.00 | 0.00 | 0.00 | 90 | 1055.0 |
| 20260902035533 | 66 | 264 | 3.0 | 6.0 | 0.00 | 0.00 | 0.00 | 90 | 1055.0 |
| 20260902035251 | 66 | 263 | 3.0 | 6.0 | 0.00 | 0.00 | 0.00 | 90 | 1055.0 |
| 20260902035204 | 66 | 264 | 3.0 | 6.0 | 0.00 | 0.00 | 0.00 | 90 | 1055.0 |
| 20260902035142 | 66 | 263 | 3.0 | 6.0 | 0.00 | 0.00 | 0.00 | 90 | 1055.0 |
| 20260902035132 | 66 | 263 | 3.0 | 6.0 | 0.00 | 0.00 | 0.00 | 90 | 1055.0 |
| 20260902034759 | 66 | 264 | 3.0 | 6.0 | 0.00 | 0.00 | 0.00 | 90 | 1055.1 |
| 20260902034751 | 66 | 263 | 3.0 | 6.0 | 0.00 | 0.00 | 0.00 | 90 | 1055.1 |
| 20260902034659 | 66 | 263 | 3.0 | 6.0 | 0.00 | 0.00 | 0.00 | 90 | 1055.1 |
| 20260902034559 | 66 | 263 | 3.0 | 6.0 | 0.00 | 0.00 | 0.00 | 90 | 1055.2 |
| 20260902034457 | 66 | 263 | 3.0 | 6.0 | 0.00 | 0.00 | 0.00 | 90 | 1055.2 |
| 20260902034437 | 66 | 263 | 3.0 | 6.0 | 0.00 | 0.00 | 0.00 | 90 | 1055.2 |
| 20260902034420 | 66 | 263 | 3.0 | 6.0 | 0.00 | 0.00 | 0.00 | 90 | 1055.2 |
| 20260902034057 | 66 | 263 | 3.0 | 6.0 | 0.00 | 0.00 | 0.00 | 90 | 1055.2 |
| 20260902033955 | 66 | 261 | 2.0 | 6.0 | 0.00 | 0.00 | 0.00 | 90 | 1055.2 |
| 20260902033935 | 66 | 261 | 2.0 | 4.0 | 0.00 | 0.00 | 0.00 | 90 | 1055.2 |
| 20260902033918 | 66 | 261 | 2.0 | 4.0 | 0.00 | 0.00 | 0.00 | 90 | 1055.2 |
| 20260902033642 | 66 | 260 | 2.0 | 4.0 | 0.00 | 0.00 | 0.00 | 90 | 1055.2 |
| 20260902033634 | 66 | 260 | 2.0 | 4.0 | 0.00 | 0.00 | 0.00 | 90 | 1055.2 |
| 20260902033626 | 66 | 260 | 2.0 | 4.0 | 0.00 | 0.00 | 0.00 | 90 | 1055.3 |
| 20260902033611 | 66 | 260 | 2.0 | 4.0 | 0.00 | 0.00 | 0.00 | 90 | 1055.2 |
| 20260902033339 | 66 | 260 | 2.0 | 4.0 | 0.00 | 0.00 | 0.00 | 90 | 1055.3 |
| 20260902033108 | 66 | 260 | 2.0 | 4.0 | 0.00 | 0.00 | 0.00 | 90 | 1055.3 |
| 20260902032846 | 66 | 260 | 2.0 | 4.0 | 0.00 | 0.00 | 0.00 | 90 | 1055.3 |
| 20260902032835 | 66 | 260 | 2.0 | 4.0 | 0.00 | 0.00 | 0.00 | 90 | 1055.4 |
| 20260902032826 | 66 | 260 | 2.0 | 4.0 | 0.00 | 0.00 | 0.00 | 90 | 1055.3 |
| 20260902032818 | 66 | 260 | 2.0 | 4.0 | 0.00 | 0.00 | 0.00 | 90 | 1055.3 |
| 20260902032543 | 66 | 260 | 2.0 | 3.0 | 0.00 | 0.00 | 0.00 | 90 | 1055.4 |
| 20260902032532 | 66 | 260 | 2.0 | 3.0 | 0.00 | 0.00 | 0.00 | 90 | 1055.4 |
| 20260902032524 | 66 | 260 | 2.0 | 4.0 | 0.00 | 0.00 | 0.00 | 90 | 1055.4 |
| 20260902031808 | 66 | 260 | 2.0 | 4.0 | 0.00 | 0.00 | 0.00 | 90 | 1055.4 |
| 20260902031752 | 66 | 260 | 2.0 | 4.0 | 0.00 | 0.00 | 0.00 | 90 | 1055.4 |
| 20260902031436 | 66 | 260 | 2.0 | 4.0 | 0.00 | 0.00 | 0.00 | 90 | 1055.3 |
| 20260902031425 | 66 | 260 | 2.0 | 4.0 | 0.00 | 0.00 | 0.00 | 90 | 1055.4 |
| 20260902031406 | 66 | 260 | 2.0 | 4.0 | 0.00 | 0.00 | 0.00 | 90 | 1055.3 |
| 20260902031138 | 66 | 260 | 2.0 | 4.0 | 0.00 | 0.00 | 0.00 | 90 | 1055.3 |
| 20260902031126 | 66 | 260 | 2.0 | 4.0 | 0.00 | 0.00 | 0.00 | 90 | 1055.2 |
| 20260902030857 | 66 | 260 | 2.0 | 4.0 | 0.00 | 0.00 | 0.00 | 90 | 1055.3 |
| 20260902030852 | 66 | 259 | 2.0 | 4.0 | 0.00 | 0.00 | 0.00 | 90 | 1055.3 |
| 20260902030527 | 66 | 260 | 2.0 | 4.0 | 0.00 | 0.00 | 0.00 | 90 | 1055.2 |
| 20260902030427 | 66 | 259 | 2.0 | 4.0 | 0.00 | 0.00 | 0.00 | 90 | 1055.3 |
| 20260902030327 | 66 | 258 | 2.0 | 4.0 | 0.00 | 0.00 | 0.00 | 90 | 1055.3 |
| 20260902030245 | 66 | 260 | 2.0 | 4.0 | 0.00 | 0.00 | 0.00 | 90 | 1055.2 |
| 20260902030228 | 66 | 259 | 2.0 | 4.0 | 0.00 | 0.00 | 0.00 | 90 | 1055.2 |
| 20260902030127 | 66 | 259 | 2.0 | 4.0 | 0.00 | 0.00 | 0.00 | 90 | 1055.3 |
| 20260902030027 | 66 | 259 | 2.0 | 4.0 | 0.00 | 0.00 | 0.00 | 90 | 1055.2 |
| 20260902030012 | 66 | 260 | 2.0 | 4.0 | 0.00 | 0.00 | 0.00 | 90 | 1055.2 |
| 20260902025959 | 66 | 260 | 2.0 | 4.0 | 0.00 | 0.00 | 0.00 | 90 | 1055.3 |
| 20260902025728 | 66 | 258 | 2.0 | 3.0 | 0.00 | 0.00 | 0.00 | 90 | 1055.3 |
| 20260902025623 | 66 | 259 | 2.0 | 3.0 | 0.00 | 0.00 | 0.00 | 90 | 1055.2 |
| 20260902025521 | 66 | 259 | 2.0 | 3.0 | 0.00 | 0.00 | 0.00 | 90 | 1055.3 |
| 20260902025422 | 66 | 259 | 2.0 | 4.0 | 0.00 | 0.00 | 0.00 | 90 | 1055.3 |
| 20260902025321 | 66 | 259 | 2.0 | 4.0 | 0.00 | 0.00 | 0.00 | 90 | 1055.2 |
| 20260902025225 | 66 | 259 | 2.0 | 4.0 | 0.00 | 0.00 | 0.00 | 90 | 1055.2 |
| 20260902025124 | 66 | 259 | 2.0 | 4.0 | 0.00 | 0.00 | 0.00 | 90 | 1055.2 |
| 20260902025031 | 66 | 259 | 2.0 | 4.0 | 0.00 | 0.00 | 0.00 | 90 | 1055.3 |
| 20260902024922 | 66 | 258 | 2.0 | 4.0 | 0.00 | 0.00 | 0.00 | 90 | 1055.2 |
| 20260902024821 | 66 | 259 | 2.0 | 4.0 | 0.00 | 0.00 | 0.00 | 90 | 1055.2 |
| 20260902024724 | 66 | 260 | 2.0 | 4.0 | 0.00 | 0.00 | 0.00 | 90 | 1055.2 |
| 20260902024620 | 66 | 259 | 2.0 | 4.0 | 0.00 | 0.00 | 0.00 | 90 | 1055.2 |
| 20260902024519 | 66 | 258 | 2.0 | 4.0 | 0.00 | 0.00 | 0.00 | 90 | 1055.2 |
| 20260902024412 | 66 | 259 | 2.0 | 4.0 | 0.00 | 0.00 | 0.00 | 90 | 1055.2 |
| 20260902024312 | 66 | 259 | 2.0 | 3.0 | 0.00 | 0.00 | 0.00 | 90 | 1055.2 |
| 20260902024243 | 66 | 258 | 2.0 | 3.0 | 0.00 | 0.00 | 0.00 | 90 | 1055.2 |
| 20260902024210 | 66 | 258 | 2.0 | 3.0 | 0.00 | 0.00 | 0.00 | 90 | 1055.3 |
| 20260902024111 | 66 | 258 | 2.0 | 3.0 | 0.00 | 0.00 | 0.00 | 90 | 1055.2 |
| 20260902024011 | 66 | 259 | 2.0 | 3.0 | 0.00 | 0.00 | 0.00 | 89 | 1055.3 |
| 20260902023932 | 66 | 258 | 2.0 | 3.0 | 0.00 | 0.00 | 0.00 | 89 | 1055.3 |
| 20260902023920 | 66 | 258 | 2.0 | 3.0 | 0.00 | 0.00 | 0.00 | 89 | 1055.3 |
| 20260902023910 | 66 | 259 | 2.0 | 3.0 | 0.00 | 0.00 | 0.00 | 89 | 1055.3 |
| 20260902023859 | 66 | 258 | 2.0 | 3.0 | 0.00 | 0.00 | 0.00 | 89 | 1055.2 |
| 20260902023634 | 66 | 259 | 2.0 | 3.0 | 0.00 | 0.00 | 0.00 | 89 | 1055.3 |
| 20260902023310 | 66 | 258 | 2.0 | 3.0 | 0.00 | 0.00 | 0.00 | 90 | 1055.3 |
| 20260902023242 | 66 | 259 | 2.0 | 3.0 | 0.00 | 0.00 | 0.00 | 90 | 1055.3 |
| 20260902023205 | 66 | 259 | 2.0 | 3.0 | 0.00 | 0.00 | 0.00 | 90 | 1055.3 |
| 20260902023139 | 66 | 258 | 2.0 | 3.0 | 0.00 | 0.00 | 0.00 | 90 | 1055.3 |
| 20260902023131 | 66 | 259 | 2.0 | 3.0 | 0.00 | 0.00 | 0.00 | 90 | 1055.4 |
| 20260902022803 | 66 | 258 | 2.0 | 3.0 | 0.00 | 0.00 | 0.00 | 90 | 1055.3 |
| 20260902022741 | 66 | 258 | 2.0 | 3.0 | 0.00 | 0.00 | 0.00 | 90 | 1055.3 |
| 20260902022703 | 66 | 259 | 2.0 | 3.0 | 0.00 | 0.00 | 0.00 | 90 | 1055.4 |
| 20260902022603 | 66 | 258 | 2.0 | 4.0 | 0.00 | 0.00 | 0.00 | 90 | 1055.4 |
| 20260902022503 | 66 | 258 | 2.0 | 4.0 | 0.00 | 0.00 | 0.00 | 90 | 1055.3 |
| 20260902022427 | 66 | 258 | 2.0 | 4.0 | 0.00 | 0.00 | 0.00 | 90 | 1055.3 |
| 20260902022415 | 66 | 259 | 2.0 | 4.0 | 0.00 | 0.00 | 0.00 | 90 | 1055.3 |
| 20260902022359 | 66 | 258 | 2.0 | 4.0 | 0.00 | 0.00 | 0.00 | 90 | 1055.3 |
| 20260902022352 | 66 | 258 | 2.0 | 4.0 | 0.00 | 0.00 | 0.00 | 89 | 1055.3 |
| 20260902022345 | 66 | 258 | 2.0 | 4.0 | 0.00 | 0.00 | 0.00 | 89 | 1055.4 |
| 20260902022331 | 66 | 258 | 2.0 | 4.0 | 0.00 | 0.00 | 0.00 | 89 | 1055.4 |
| 20260902021841 | 66 | 258 | 2.0 | 4.0 | 0.00 | 0.00 | 0.00 | 89 | 1055.4 |
| 20260902021831 | 66 | 258 | 2.0 | 4.0 | 0.00 | 0.00 | 0.00 | 89 | 1055.4 |
| 20260902021823 | 66 | 258 | 2.0 | 3.0 | 0.00 | 0.00 | 0.00 | 89 | 1055.4 |
| 20260902021547 | 66 | 258 | 2.0 | 4.0 | 0.00 | 0.00 | 0.00 | 89 | 1055.4 |
| 20260902021327 | 66 | 258 | 2.0 | 4.0 | 0.00 | 0.00 | 0.00 | 89 | 1055.3 |
| 20260902021005 | 66 | 258 | 2.0 | 4.0 | 0.00 | 0.00 | 0.00 | 89 | 1055.3 |
| 20260902020905 | 66 | 258 | 2.0 | 4.0 | 0.00 | 0.00 | 0.00 | 89 | 1055.3 |
| 20260902020803 | 66 | 258 | 2.0 | 4.0 | 0.00 | 0.00 | 0.00 | 89 | 1055.3 |
| 20260902020741 | 66 | 258 | 2.0 | 4.0 | 0.00 | 0.00 | 0.00 | 89 | 1055.3 |
| 20260902020703 | 66 | 258 | 2.0 | 4.0 | 0.00 | 0.00 | 0.00 | 89 | 1055.2 |
| 20260902020603 | 66 | 258 | 2.0 | 4.0 | 0.00 | 0.00 | 0.00 | 89 | 1055.2 |
| 20260902020503 | 66 | 258 | 2.0 | 4.0 | 0.00 | 0.00 | 0.00 | 89 | 1055.2 |
| 20260902020448 | 66 | 258 | 2.0 | 4.0 | 0.00 | 0.00 | 0.00 | 89 | 1055.3 |
| 20260902020436 | 66 | 258 | 2.0 | 3.0 | 0.00 | 0.00 | 0.00 | 89 | 1055.3 |
| 20260902020428 | 66 | 258 | 2.0 | 3.0 | 0.00 | 0.00 | 0.00 | 89 | 1055.3 |
| 20260902020041 | 66 | 258 | 2.0 | 3.0 | 0.00 | 0.00 | 0.00 | 89 | 1055.4 |
| 20260902020028 | 66 | 258 | 2.0 | 3.0 | 0.00 | 0.00 | 0.00 | 89 | 1055.4 |
| 20260902015736 | 66 | 258 | 2.0 | 4.0 | 0.00 | 0.00 | 0.00 | 89 | 1055.4 |
| 20260902015728 | 66 | 258 | 3.0 | 4.0 | 0.00 | 0.00 | 0.00 | 89 | 1055.3 |
| 20260902015715 | 66 | 258 | 3.0 | 6.0 | 0.00 | 0.00 | 0.00 | 89 | 1055.3 |
| 20260902015446 | 66 | 258 | 3.0 | 6.0 | 0.00 | 0.00 | 0.00 | 89 | 1055.3 |
| 20260902015430 | 66 | 258 | 3.0 | 6.0 | 0.00 | 0.00 | 0.00 | 89 | 1055.3 |
| 20260902015422 | 66 | 258 | 3.0 | 6.0 | 0.00 | 0.00 | 0.00 | 89 | 1055.2 |
| 20260902015151 | 66 | 258 | 3.0 | 6.0 | 0.00 | 0.00 | 0.00 | 89 | 1055.2 |
| 20260902015139 | 66 | 258 | 3.0 | 6.0 | 0.00 | 0.00 | 0.00 | 89 | 1055.3 |
| 20260902014603 | 66 | 258 | 3.0 | 6.0 | 0.00 | 0.00 | 0.00 | 89 | 1055.3 |
| 20260902014506 | 66 | 257 | 3.0 | 6.0 | 0.00 | 0.00 | 0.00 | 89 | 1055.3 |
| 20260902014404 | 66 | 258 | 2.0 | 6.0 | 0.00 | 0.00 | 0.00 | 89 | 1055.3 |
| 20260902014304 | 66 | 258 | 2.0 | 4.0 | 0.00 | 0.00 | 0.00 | 89 | 1055.3 |
| 20260902014241 | 66 | 258 | 2.0 | 4.0 | 0.00 | 0.00 | 0.00 | 89 | 1055.3 |
| 20260902014203 | 66 | 257 | 2.0 | 4.0 | 0.00 | 0.00 | 0.00 | 89 | 1055.2 |
| 20260902014135 | 66 | 257 | 2.0 | 4.0 | 0.00 | 0.00 | 0.00 | 89 | 1055.3 |
| 20260902014127 | 66 | 257 | 3.0 | 4.0 | 0.00 | 0.00 | 0.00 | 89 | 1055.3 |
| 20260902013808 | 66 | 258 | 3.0 | 4.0 | 0.00 | 0.00 | 0.00 | 89 | 1055.3 |
| 20260902013751 | 66 | 257 | 3.0 | 6.0 | 0.00 | 0.00 | 0.00 | 89 | 1055.3 |
| 20260902013739 | 66 | 258 | 3.0 | 6.0 | 0.00 | 0.00 | 0.00 | 89 | 1055.3 |
| 20260902013731 | 66 | 257 | 3.0 | 6.0 | 0.00 | 0.00 | 0.00 | 89 | 1055.3 |
| 20260902013457 | 66 | 257 | 3.0 | 6.0 | 0.00 | 0.00 | 0.00 | 89 | 1055.3 |
| 20260902013440 | 66 | 257 | 3.0 | 6.0 | 0.00 | 0.00 | 0.00 | 89 | 1055.3 |
| 20260902012904 | 66 | 257 | 3.0 | 6.0 | 0.00 | 0.00 | 0.00 | 89 | 1055.3 |
| 20260902012827 | 66 | 257 | 3.0 | 6.0 | 0.00 | 0.00 | 0.00 | 89 | 1055.4 |
| 20260902012810 | 66 | 256 | 3.0 | 6.0 | 0.00 | 0.00 | 0.00 | 89 | 1055.4 |
| 20260902012758 | 66 | 257 | 3.0 | 6.0 | 0.00 | 0.00 | 0.00 | 90 | 1055.4 |
| 20260902012747 | 66 | 257 | 3.0 | 6.0 | 0.00 | 0.00 | 0.00 | 90 | 1055.4 |
| 20260902012233 | 66 | 253 | 2.0 | 5.0 | 0.00 | 0.00 | 0.00 | 89 | 1055.4 |
| 20260902012202 | 66 | 253 | 2.0 | 5.0 | 0.00 | 0.00 | 0.00 | 89 | 1055.4 |
| 20260902012103 | 66 | 253 | 2.0 | 5.0 | 0.00 | 0.00 | 0.00 | 89 | 1055.4 |
| 20260902012019 | 66 | 254 | 2.0 | 5.0 | 0.00 | 0.00 | 0.00 | 89 | 1055.4 |
| 20260902012007 | 66 | 253 | 2.0 | 5.0 | 0.00 | 0.00 | 0.00 | 89 | 1055.4 |
| 20260902011952 | 66 | 253 | 2.0 | 5.0 | 0.00 | 0.00 | 0.00 | 89 | 1055.4 |
| 20260902011659 | 66 | 253 | 2.0 | 4.0 | 0.00 | 0.00 | 0.00 | 89 | 1055.5 |
| 20260902011559 | 66 | 253 | 2.0 | 4.0 | 0.00 | 0.00 | 0.00 | 89 | 1055.4 |
| 20260902011459 | 66 | 253 | 2.0 | 4.0 | 0.00 | 0.00 | 0.00 | 89 | 1055.5 |
| 20260902011359 | 66 | 253 | 2.0 | 4.0 | 0.00 | 0.00 | 0.00 | 89 | 1055.5 |
| 20260902011232 | 66 | 253 | 2.0 | 4.0 | 0.00 | 0.00 | 0.00 | 89 | 1055.5 |
| 20260902011158 | 66 | 253 | 2.0 | 4.0 | 0.00 | 0.00 | 0.00 | 89 | 1055.5 |
| 20260902011059 | 66 | 253 | 2.0 | 4.0 | 0.00 | 0.00 | 0.00 | 90 | 1055.6 |
| 20260902010958 | 66 | 253 | 2.0 | 4.0 | 0.00 | 0.00 | 0.00 | 90 | 1055.6 |
| 20260902010858 | 66 | 254 | 2.0 | 4.0 | 0.00 | 0.00 | 0.00 | 90 | 1055.6 |
| 20260902010731 | 66 | 253 | 2.0 | 4.0 | 0.00 | 0.00 | 0.00 | 90 | 1055.6 |
| 20260902010659 | 66 | 253 | 2.0 | 4.0 | 0.00 | 0.00 | 0.00 | 90 | 1055.6 |
| 20260902010559 | 66 | 253 | 2.0 | 4.0 | 0.00 | 0.00 | 0.00 | 89 | 1055.6 |
| 20260902010508 | 66 | 253 | 2.0 | 4.0 | 0.00 | 0.00 | 0.00 | 89 | 1055.6 |
| 20260902010458 | 66 | 253 | 2.0 | 4.0 | 0.00 | 0.00 | 0.00 | 90 | 1055.6 |
| 20260902010436 | 66 | 252 | 2.0 | 4.0 | 0.00 | 0.00 | 0.00 | 90 | 1055.6 |
| 20260902010209 | 65 | 251 | 2.0 | 3.0 | 0.00 | 0.00 | 0.00 | 90 | 1055.7 |
| 20260902010156 | 65 | 252 | 2.0 | 4.0 | 0.00 | 0.00 | 0.00 | 90 | 1055.6 |
| 20260902010146 | 65 | 252 | 2.0 | 4.0 | 0.00 | 0.00 | 0.00 | 90 | 1055.6 |
| 20260902005915 | 65 | 253 | 2.0 | 4.0 | 0.00 | 0.00 | 0.00 | 89 | 1055.6 |
| 20260902005619 | 65 | 251 | 2.0 | 4.0 | 0.00 | 0.00 | 0.00 | 89 | 1055.6 |
| 20260902005609 | 65 | 252 | 2.0 | 4.0 | 0.00 | 0.00 | 0.00 | 89 | 1055.6 |
| 20260902005221 | 65 | 252 | 3.0 | 4.0 | 0.00 | 0.00 | 0.00 | 89 | 1055.6 |
| 20260902005145 | 65 | 251 | 3.0 | 4.0 | 0.00 | 0.00 | 0.00 | 89 | 1055.6 |
| 20260902005042 | 65 | 251 | 3.0 | 4.0 | 0.00 | 0.00 | 0.00 | 89 | 1055.6 |
| 20260902004941 | 65 | 251 | 3.0 | 4.0 | 0.00 | 0.00 | 0.00 | 89 | 1055.6 |
| 20260902004840 | 65 | 252 | 3.0 | 4.0 | 0.00 | 0.00 | 0.00 | 89 | 1055.6 |
| 20260902004742 | 65 | 251 | 3.0 | 4.0 | 0.00 | 0.00 | 0.00 | 89 | 1055.6 |
| 20260902004716 | 65 | 252 | 3.0 | 4.0 | 0.00 | 0.00 | 0.00 | 89 | 1055.6 |
| 20260902004700 | 65 | 251 | 3.0 | 4.0 | 0.00 | 0.00 | 0.00 | 89 | 1055.6 |
| 20260902004652 | 65 | 252 | 3.0 | 4.0 | 0.00 | 0.00 | 0.00 | 89 | 1055.6 |
| 20260902004638 | 65 | 251 | 3.0 | 4.0 | 0.00 | 0.00 | 0.00 | 89 | 1055.6 |
| 20260902004356 | 65 | 251 | 3.0 | 4.0 | 0.00 | 0.00 | 0.00 | 89 | 1055.6 |
| 20260902004347 | 65 | 251 | 3.0 | 4.0 | 0.00 | 0.00 | 0.00 | 89 | 1055.6 |
| 20260902004339 | 65 | 251 | 3.0 | 4.0 | 0.00 | 0.00 | 0.00 | 89 | 1055.7 |
| 20260902003838 | 65 | 251 | 2.0 | 4.0 | 0.00 | 0.00 | 0.00 | 89 | 1055.7 |
| 20260902003827 | 65 | 252 | 2.0 | 4.0 | 0.00 | 0.00 | 0.00 | 89 | 1055.7 |
| 20260902003557 | 65 | 252 | 2.0 | 4.0 | 0.00 | 0.00 | 0.00 | 89 | 1055.7 |
| 20260902003235 | 65 | 252 | 2.0 | 4.0 | 0.00 | 0.00 | 0.00 | 89 | 1055.6 |
| 20260902003214 | 65 | 251 | 2.0 | 4.0 | 0.00 | 0.00 | 0.00 | 89 | 1055.6 |
| 20260902003135 | 65 | 252 | 2.0 | 4.0 | 0.00 | 0.00 | 0.00 | 89 | 1055.6 |
| 20260902003037 | 65 | 251 | 2.0 | 3.0 | 0.00 | 0.00 | 0.00 | 89 | 1055.6 |
| 20260902002936 | 65 | 252 | 2.0 | 3.0 | 0.00 | 0.00 | 0.00 | 89 | 1055.6 |
| 20260902002832 | 65 | 251 | 2.0 | 3.0 | 0.00 | 0.00 | 0.00 | 89 | 1055.6 |
| 20260902002716 | 65 | 251 | 2.0 | 3.0 | 0.00 | 0.00 | 0.00 | 89 | 1055.6 |
| 20260902002632 | 65 | 252 | 2.0 | 3.0 | 0.00 | 0.00 | 0.00 | 89 | 1055.6 |
| 20260902002532 | 65 | 252 | 2.0 | 3.0 | 0.00 | 0.00 | 0.00 | 89 | 1055.6 |
| 20260902002431 | 65 | 251 | 2.0 | 3.0 | 0.00 | 0.00 | 0.00 | 89 | 1055.6 |
| 20260902002332 | 65 | 251 | 2.0 | 3.0 | 0.00 | 0.00 | 0.00 | 89 | 1055.7 |
| 20260902002214 | 65 | 251 | 2.0 | 3.0 | 0.00 | 0.00 | 0.00 | 89 | 1055.7 |
| 20260902002131 | 65 | 251 | 2.0 | 3.0 | 0.00 | 0.00 | 0.00 | 89 | 1055.7 |
| 20260902002031 | 65 | 251 | 2.0 | 3.0 | 0.00 | 0.00 | 0.00 | 89 | 1055.7 |
| 20260902001929 | 66 | 251 | 2.0 | 3.0 | 0.00 | 0.00 | 0.00 | 89 | 1055.7 |
| 20260902001829 | 66 | 251 | 2.0 | 3.0 | 0.00 | 0.00 | 0.00 | 89 | 1055.7 |
| 20260902001715 | 66 | 251 | 2.0 | 3.0 | 0.00 | 0.00 | 0.00 | 89 | 1055.7 |
| 20260902001628 | 66 | 251 | 2.0 | 4.0 | 0.00 | 0.00 | 0.00 | 89 | 1055.7 |
| 20260902001522 | 66 | 252 | 2.0 | 4.0 | 0.00 | 0.00 | 0.00 | 89 | 1055.8 |
| 20260902001423 | 66 | 252 | 2.0 | 4.0 | 0.00 | 0.00 | 0.00 | 89 | 1055.7 |
| 20260902001321 | 66 | 251 | 2.0 | 4.0 | 0.00 | 0.00 | 0.00 | 89 | 1055.7 |
| 20260902001221 | 66 | 252 | 2.0 | 4.0 | 0.00 | 0.00 | 0.00 | 89 | 1055.7 |
| 20260902001215 | 66 | 251 | 2.0 | 4.0 | 0.00 | 0.00 | 0.00 | 89 | 1055.7 |
| 20260902001155 | 66 | 252 | 2.0 | 4.0 | 0.00 | 0.00 | 0.00 | 89 | 1055.7 |
| 20260902001147 | 66 | 251 | 2.0 | 4.0 | 0.00 | 0.00 | 0.00 | 89 | 1055.7 |
| 20260902000820 | 66 | 252 | 2.0 | 4.0 | 0.00 | 0.00 | 0.00 | 89 | 1055.8 |
| 20260902000715 | 66 | 251 | 2.0 | 4.0 | 0.00 | 0.00 | 0.00 | 89 | 1055.7 |
| 20260902000620 | 66 | 251 | 2.0 | 4.0 | 0.00 | 0.00 | 0.00 | 89 | 1055.7 |
| 20260902000521 | 66 | 252 | 2.0 | 4.0 | 0.00 | 0.00 | 0.00 | 89 | 1055.7 |
| 20260902000418 | 66 | 251 | 2.0 | 4.0 | 0.00 | 0.00 | 0.00 | 89 | 1055.7 |
| 20260902000322 | 66 | 251 | 2.0 | 4.0 | 0.00 | 0.00 | 0.00 | 89 | 1055.7 |
| 20260902000253 | 66 | 252 | 2.0 | 4.0 | 0.00 | 0.00 | 0.00 | 89 | 1055.7 |
| 20260902000243 | 66 | 252 | 2.0 | 4.0 | 0.00 | 0.00 | 0.00 | 89 | 1055.7 |
| 20260901235959 | 66 | 251 | 2.0 | 4.0 | 0.00 | 0.00 | 0.00 | 89 | 1055.7 |
| 20260901235946 | 66 | 252 | 2.0 | 4.0 | 0.00 | 0.00 | 0.00 | 89 | 1055.7 |
| 20260901235715 | 66 | 251 | 2.0 | 4.0 | 0.00 | 0.00 | 0.00 | 89 | 1055.7 |
| 20260901235618 | 66 | 251 | 3.0 | 4.0 | 0.00 | 0.00 | 0.00 | 89 | 1055.7 |
| 20260901235543 | 66 | 252 | 3.0 | 4.0 | 0.00 | 0.00 | 0.00 | 89 | 1055.7 |
| 20260901235534 | 66 | 251 | 3.0 | 4.0 | 0.00 | 0.00 | 0.00 | 89 | 1055.7 |
| 20260901235239 | 66 | 251 | 3.0 | 5.0 | 0.00 | 0.00 | 0.00 | 89 | 1055.6 |
| 20260901235229 | 66 | 251 | 3.0 | 5.0 | 0.00 | 0.00 | 0.00 | 89 | 1055.6 |
| 20260901234955 | 66 | 252 | 3.0 | 5.0 | 0.00 | 0.00 | 0.00 | 89 | 1055.6 |
| 20260901234946 | 66 | 253 | 3.0 | 5.0 | 0.00 | 0.00 | 0.00 | 89 | 1055.6 |
| 20260901234936 | 66 | 251 | 3.0 | 5.0 | 0.00 | 0.00 | 0.00 | 89 | 1055.6 |
| 20260901234709 | 66 | 251 | 2.0 | 5.0 | 0.00 | 0.00 | 0.00 | 89 | 1055.6 |
| 20260901234701 | 66 | 251 | 2.0 | 5.0 | 0.00 | 0.00 | 0.00 | 89 | 1055.6 |
| 20260901234652 | 66 | 251 | 2.0 | 5.0 | 0.00 | 0.00 | 0.00 | 89 | 1055.5 |
| 20260901234203 | 66 | 251 | 2.0 | 4.0 | 0.00 | 0.00 | 0.00 | 89 | 1055.5 |
| 20260901234101 | 66 | 251 | 2.0 | 4.0 | 0.00 | 0.00 | 0.00 | 89 | 1055.5 |
| 20260901234002 | 66 | 251 | 2.0 | 4.0 | 0.00 | 0.00 | 0.00 | 89 | 1055.5 |
| 20260901233902 | 66 | 251 | 2.0 | 4.0 | 0.00 | 0.00 | 0.00 | 89 | 1055.4 |
| 20260901233801 | 66 | 251 | 2.0 | 4.0 | 0.00 | 0.00 | 0.00 | 89 | 1055.5 |
| 20260901233705 | 66 | 251 | 2.0 | 4.0 | 0.00 | 0.00 | 0.00 | 89 | 1055.4 |
| 20260901233601 | 66 | 251 | 3.0 | 4.0 | 0.00 | 0.00 | 0.00 | 89 | 1055.4 |
| 20260901233502 | 66 | 251 | 3.0 | 4.0 | 0.00 | 0.00 | 0.00 | 89 | 1055.4 |
| 20260901233446 | 66 | 251 | 3.0 | 4.0 | 0.00 | 0.00 | 0.00 | 89 | 1055.4 |
| 20260901233431 | 66 | 251 | 3.0 | 4.0 | 0.00 | 0.00 | 0.00 | 88 | 1055.4 |
| 20260901233204 | 66 | 251 | 3.0 | 4.0 | 0.00 | 0.00 | 0.00 | 88 | 1055.4 |
| 20260901233127 | 66 | 251 | 3.0 | 4.0 | 0.00 | 0.00 | 0.00 | 88 | 1055.5 |
| 20260901233120 | 66 | 251 | 3.0 | 4.0 | 0.00 | 0.00 | 0.00 | 88 | 1055.4 |
| 20260901232756 | 66 | 251 | 3.0 | 4.0 | 0.00 | 0.00 | 0.00 | 88 | 1055.4 |
| 20260901232709 | 66 | 251 | 2.0 | 4.0 | 0.00 | 0.00 | 0.00 | 88 | 1055.4 |
| 20260901232659 | 66 | 251 | 2.0 | 4.0 | 0.00 | 0.00 | 0.00 | 88 | 1055.4 |
| 20260901232556 | 66 | 251 | 2.0 | 4.0 | 0.00 | 0.00 | 0.00 | 88 | 1055.4 |
| 20260901232457 | 66 | 251 | 2.0 | 4.0 | 0.00 | 0.00 | 0.00 | 88 | 1055.4 |
| 20260901232356 | 66 | 251 | 2.0 | 4.0 | 0.00 | 0.00 | 0.00 | 88 | 1055.4 |
| 20260901232233 | 66 | 251 | 2.0 | 4.0 | 0.00 | 0.00 | 0.00 | 88 | 1055.4 |
| 20260901232228 | 66 | 251 | 2.0 | 4.0 | 0.00 | 0.00 | 0.00 | 88 | 1055.4 |
| 20260901232217 | 66 | 251 | 2.0 | 4.0 | 0.00 | 0.00 | 0.00 | 88 | 1055.4 |
| 20260901231933 | 66 | 251 | 2.0 | 4.0 | 0.00 | 0.00 | 0.00 | 88 | 1055.4 |
| 20260901231920 | 66 | 251 | 2.0 | 4.0 | 0.00 | 0.00 | 0.00 | 88 | 1055.4 |
| 20260901231653 | 66 | 251 | 2.0 | 4.0 | 0.00 | 0.00 | 0.00 | 88 | 1055.4 |
| 20260901231548 | 66 | 251 | 2.0 | 4.0 | 0.00 | 0.00 | 0.00 | 88 | 1055.3 |
| 20260901231448 | 66 | 251 | 2.0 | 4.0 | 0.00 | 0.00 | 0.00 | 88 | 1055.3 |
| 20260901231348 | 66 | 251 | 2.0 | 4.0 | 0.00 | 0.00 | 0.00 | 88 | 1055.3 |
| 20260901231248 | 66 | 251 | 2.0 | 4.0 | 0.00 | 0.00 | 0.00 | 88 | 1055.4 |
| 20260901231205 | 66 | 251 | 2.0 | 4.0 | 0.00 | 0.00 | 0.00 | 88 | 1055.4 |
| 20260901231151 | 66 | 251 | 2.0 | 4.0 | 0.00 | 0.00 | 0.00 | 88 | 1055.4 |
| 20260901231119 | 66 | 251 | 2.0 | 4.0 | 0.00 | 0.00 | 0.00 | 88 | 1055.4 |
| 20260901231110 | 66 | 251 | 2.0 | 4.0 | 0.00 | 0.00 | 0.00 | 88 | 1055.4 |
| 20260901230742 | 66 | 251 | 2.0 | 4.0 | 0.00 | 0.00 | 0.00 | 88 | 1055.4 |
| 20260901230701 | 66 | 251 | 2.0 | 4.0 | 0.00 | 0.00 | 0.00 | 88 | 1055.5 |
| 20260901230642 | 66 | 251 | 2.0 | 4.0 | 0.00 | 0.00 | 0.00 | 88 | 1055.5 |
| 20260901230542 | 66 | 251 | 2.0 | 4.0 | 0.00 | 0.00 | 0.00 | 88 | 1055.4 |
| 20260901230515 | 66 | 251 | 2.0 | 4.0 | 0.00 | 0.00 | 0.00 | 88 | 1055.4 |
| 20260901230506 | 66 | 251 | 2.0 | 4.0 | 0.00 | 0.00 | 0.00 | 88 | 1055.4 |
| 20260901230451 | 66 | 251 | 2.0 | 3.0 | 0.00 | 0.00 | 0.00 | 88 | 1055.4 |
| 20260901230211 | 66 | 251 | 2.0 | 3.0 | 0.00 | 0.00 | 0.00 | 88 | 1055.4 |
| 20260901230203 | 67 | 251 | 2.0 | 3.0 | 0.00 | 0.00 | 0.00 | 88 | 1055.4 |
| 20260901225839 | 67 | 251 | 2.0 | 3.0 | 0.00 | 0.00 | 0.00 | 88 | 1055.4 |
| 20260901225738 | 67 | 251 | 2.0 | 3.0 | 0.00 | 0.00 | 0.00 | 88 | 1055.3 |
| 20260901225701 | 67 | 251 | 2.0 | 3.0 | 0.00 | 0.00 | 0.00 | 88 | 1055.3 |
| 20260901225636 | 67 | 251 | 2.0 | 3.0 | 0.00 | 0.00 | 0.00 | 88 | 1055.3 |
| 20260901225536 | 67 | 251 | 2.0 | 3.0 | 0.00 | 0.00 | 0.00 | 88 | 1055.4 |
| 20260901225444 | 67 | 251 | 2.0 | 4.0 | 0.00 | 0.00 | 0.00 | 88 | 1055.4 |
| 20260901225434 | 67 | 251 | 2.0 | 4.0 | 0.00 | 0.00 | 0.00 | 88 | 1055.4 |
| 20260901225419 | 67 | 251 | 3.0 | 5.0 | 0.00 | 0.00 | 0.00 | 88 | 1055.4 |
| 20260901225132 | 67 | 251 | 3.0 | 5.0 | 0.00 | 0.00 | 0.00 | 88 | 1055.4 |
| 20260901225031 | 67 | 251 | 3.0 | 5.0 | 0.00 | 0.00 | 0.00 | 88 | 1055.4 |
| 20260901224930 | 67 | 251 | 3.0 | 5.0 | 0.00 | 0.00 | 0.00 | 88 | 1055.4 |
| 20260901224829 | 67 | 251 | 3.0 | 5.0 | 0.00 | 0.00 | 0.00 | 88 | 1055.4 |
| 20260901224704 | 67 | 251 | 3.0 | 5.0 | 0.00 | 0.00 | 0.00 | 88 | 1055.4 |
| 20260901224629 | 67 | 251 | 3.0 | 5.0 | 0.00 | 0.00 | 0.00 | 88 | 1055.4 |
| 20260901224529 | 67 | 251 | 3.0 | 5.0 | 0.00 | 0.00 | 0.00 | 88 | 1055.3 |
| 20260901224505 | 67 | 251 | 3.0 | 5.0 | 0.00 | 0.00 | 0.00 | 88 | 1055.3 |
| 20260901224456 | 67 | 251 | 3.0 | 5.0 | 0.00 | 0.00 | 0.00 | 88 | 1055.4 |
| 20260901224204 | 67 | 249 | 3.0 | 5.0 | 0.00 | 0.00 | 0.00 | 88 | 1055.3 |
| 20260901224129 | 67 | 237 | 3.0 | 5.0 | 0.00 | 0.00 | 0.00 | 88 | 1055.3 |
| 20260901224053 | 67 | 233 | 2.0 | 4.0 | 0.00 | 0.00 | 0.00 | 88 | 1055.3 |
| 20260901224046 | 67 | 233 | 2.0 | 4.0 | 0.00 | 0.00 | 0.00 | 88 | 1055.3 |
| 20260901224031 | 67 | 233 | 2.0 | 4.0 | 0.00 | 0.00 | 0.00 | 88 | 1055.3 |
| 20260901224014 | 67 | 233 | 2.0 | 4.0 | 0.00 | 0.00 | 0.00 | 88 | 1055.3 |
| 20260901223749 | 67 | 233 | 2.0 | 4.0 | 0.00 | 0.00 | 0.00 | 88 | 1055.3 |
| 20260901223426 | 67 | 233 | 1.0 | 4.0 | 0.00 | 0.00 | 0.00 | 88 | 1055.2 |
| 20260901223326 | 67 | 232 | 1.0 | 4.0 | 0.00 | 0.00 | 0.00 | 88 | 1055.2 |
| 20260901223201 | 67 | 232 | 1.0 | 3.0 | 0.00 | 0.00 | 0.00 | 88 | 1055.2 |
| 20260901223124 | 67 | 232 | 1.0 | 3.0 | 0.00 | 0.00 | 0.00 | 88 | 1055.2 |
| 20260901223022 | 67 | 233 | 1.0 | 3.0 | 0.00 | 0.00 | 0.00 | 88 | 1055.2 |
| 20260901222922 | 67 | 232 | 1.0 | 3.0 | 0.00 | 0.00 | 0.00 | 87 | 1055.2 |
| 20260901222858 | 67 | 232 | 1.0 | 3.0 | 0.00 | 0.00 | 0.00 | 87 | 1055.1 |
| 20260901222848 | 67 | 232 | 1.0 | 3.0 | 0.00 | 0.00 | 0.00 | 87 | 1055.1 |
| 20260901222843 | 67 | 232 | 2.0 | 3.0 | 0.00 | 0.00 | 0.00 | 87 | 1055.1 |
| 20260901222518 | 67 | 233 | 2.0 | 3.0 | 0.00 | 0.00 | 0.00 | 87 | 1055.1 |
| 20260901222418 | 67 | 233 | 2.0 | 3.0 | 0.00 | 0.00 | 0.00 | 87 | 1055.1 |
| 20260901222318 | 67 | 232 | 2.0 | 3.0 | 0.00 | 0.00 | 0.00 | 87 | 1055.1 |
| 20260901222218 | 67 | 233 | 2.0 | 3.0 | 0.00 | 0.00 | 0.00 | 87 | 1055.1 |
| 20260901222201 | 67 | 233 | 2.0 | 3.0 | 0.00 | 0.00 | 0.00 | 87 | 1055.0 |
| 20260901222119 | 67 | 233 | 2.0 | 3.0 | 0.00 | 0.00 | 0.00 | 87 | 1055.0 |
| 20260901222018 | 67 | 232 | 2.0 | 2.0 | 0.00 | 0.00 | 0.00 | 87 | 1055.1 |
| 20260901221914 | 67 | 232 | 1.0 | 3.0 | 0.00 | 0.00 | 0.00 | 87 | 1055.1 |
| 20260901221812 | 67 | 232 | 2.0 | 3.0 | 0.00 | 0.00 | 0.00 | 87 | 1055.0 |
| 20260901221746 | 67 | 232 | 2.0 | 3.0 | 0.00 | 0.00 | 0.00 | 87 | 1055.0 |
| 20260901221735 | 67 | 233 | 2.0 | 3.0 | 0.00 | 0.00 | 0.00 | 87 | 1055.0 |
| 20260901221406 | 67 | 233 | 2.0 | 3.0 | 0.00 | 0.00 | 0.00 | 87 | 1055.0 |
| 20260901221306 | 67 | 232 | 2.0 | 3.0 | 0.00 | 0.00 | 0.00 | 87 | 1055.0 |
| 20260901221243 | 67 | 232 | 2.0 | 3.0 | 0.00 | 0.00 | 0.00 | 87 | 1055.0 |
| 20260901221239 | 67 | 233 | 2.0 | 3.0 | 0.00 | 0.00 | 0.00 | 87 | 1055.0 |
| 20260901221228 | 67 | 232 | 2.0 | 3.0 | 0.00 | 0.00 | 0.00 | 88 | 1055.1 |
| 20260901220902 | 67 | 231 | 2.0 | 3.0 | 0.00 | 0.00 | 0.00 | 87 | 1055.0 |
| 20260901220802 | 67 | 233 | 2.0 | 3.0 | 0.00 | 0.00 | 0.00 | 87 | 1055.0 |
| 20260901220701 | 67 | 232 | 2.0 | 3.0 | 0.00 | 0.00 | 0.00 | 87 | 1055.0 |
| 20260901220602 | 67 | 232 | 2.0 | 3.0 | 0.00 | 0.00 | 0.00 | 87 | 1055.0 |
| 20260901220501 | 67 | 232 | 2.0 | 3.0 | 0.00 | 0.00 | 0.00 | 87 | 1055.0 |
| 20260901220401 | 67 | 233 | 2.0 | 4.0 | 0.00 | 0.00 | 0.00 | 87 | 1054.9 |
| 20260901220341 | 67 | 234 | 2.0 | 4.0 | 0.00 | 0.00 | 0.00 | 87 | 1054.9 |
| 20260901220327 | 67 | 233 | 2.0 | 4.0 | 0.00 | 0.00 | 0.00 | 87 | 1054.9 |
| 20260901220316 | 67 | 232 | 2.0 | 4.0 | 0.00 | 0.00 | 0.00 | 87 | 1054.9 |
| 20260901220301 | 67 | 232 | 2.0 | 4.0 | 0.00 | 0.00 | 0.00 | 87 | 1054.9 |
| 20260901220251 | 67 | 233 | 2.0 | 4.0 | 0.00 | 0.00 | 0.00 | 87 | 1054.9 |
| 20260901220242 | 67 | 232 | 2.0 | 4.0 | 0.00 | 0.00 | 0.00 | 87 | 1054.9 |
| 20260901220224 | 67 | 233 | 2.0 | 4.0 | 0.00 | 0.00 | 0.00 | 87 | 1054.9 |
| 20260901215959 | 67 | 232 | 2.0 | 4.0 | 0.00 | 0.00 | 0.00 | 87 | 1054.9 |
| 20260901215951 | 67 | 232 | 2.0 | 4.0 | 0.00 | 0.00 | 0.00 | 87 | 1054.9 |
| 20260901215943 | 67 | 232 | 2.0 | 3.0 | 0.00 | 0.00 | 0.00 | 87 | 1054.9 |
| 20260901215932 | 67 | 232 | 2.0 | 3.0 | 0.00 | 0.00 | 0.00 | 87 | 1054.9 |
| 20260901215915 | 67 | 233 | 2.0 | 3.0 | 0.00 | 0.00 | 0.00 | 87 | 1054.9 |
| 20260901215649 | 67 | 233 | 2.0 | 3.0 | 0.00 | 0.00 | 0.00 | 87 | 1054.9 |
| 20260901215422 | 67 | 233 | 2.0 | 3.0 | 0.00 | 0.00 | 0.00 | 87 | 1054.9 |
| 20260901215146 | 68 | 232 | 2.0 | 3.0 | 0.00 | 0.00 | 0.00 | 87 | 1055.0 |
| 20260901214651 | 68 | 233 | 2.0 | 4.0 | 0.00 | 0.00 | 0.00 | 87 | 1055.0 |
| 20260901214414 | 68 | 232 | 2.0 | 4.0 | 0.00 | 0.00 | 0.00 | 87 | 1055.0 |
| 20260901214101 | 68 | 232 | 2.0 | 4.0 | 0.00 | 0.00 | 0.00 | 87 | 1054.9 |
| 20260901214037 | 68 | 233 | 2.0 | 4.0 | 0.00 | 0.00 | 0.00 | 87 | 1054.9 |
| 20260901214029 | 68 | 232 | 2.0 | 4.0 | 0.00 | 0.00 | 0.00 | 87 | 1054.9 |
| 20260901213700 | 68 | 232 | 2.0 | 4.0 | 0.00 | 0.00 | 0.00 | 87 | 1054.9 |
| 20260901213601 | 68 | 232 | 2.0 | 4.0 | 0.00 | 0.00 | 0.00 | 87 | 1054.9 |
| 20260901213526 | 68 | 232 | 2.0 | 4.0 | 0.00 | 0.00 | 0.00 | 87 | 1054.8 |
| 20260901213518 | 68 | 232 | 2.0 | 4.0 | 0.00 | 0.00 | 0.00 | 87 | 1054.8 |
| 20260901213504 | 68 | 232 | 2.0 | 4.0 | 0.00 | 0.00 | 0.00 | 87 | 1054.8 |
| 20260901213241 | 68 | 232 | 2.0 | 4.0 | 0.00 | 0.00 | 0.00 | 87 | 1054.8 |
| 20260901213230 | 68 | 232 | 2.0 | 4.0 | 0.00 | 0.00 | 0.00 | 87 | 1054.8 |
| 20260901213220 | 68 | 232 | 2.0 | 4.0 | 0.00 | 0.00 | 0.00 | 87 | 1054.8 |
| 20260901213211 | 68 | 232 | 2.0 | 4.0 | 0.00 | 0.00 | 0.00 | 87 | 1054.8 |
| 20260901213157 | 68 | 232 | 2.0 | 4.0 | 0.00 | 0.00 | 0.00 | 87 | 1054.8 |
| 20260901212705 | 68 | 232 | 1.0 | 4.0 | 0.00 | 0.00 | 0.00 | 87 | 1054.8 |
| 20260901212653 | 68 | 232 | 1.0 | 4.0 | 0.00 | 0.00 | 0.00 | 86 | 1054.8 |
| 20260901212644 | 68 | 232 | 1.0 | 4.0 | 0.00 | 0.00 | 0.00 | 86 | 1054.8 |
| 20260901212410 | 68 | 232 | 1.0 | 4.0 | 0.00 | 0.00 | 0.00 | 86 | 1054.8 |
| 20260901212046 | 68 | 232 | 1.0 | 4.0 | 0.00 | 0.00 | 0.00 | 86 | 1054.9 |
| 20260901212011 | 68 | 233 | 1.0 | 3.0 | 0.00 | 0.00 | 0.00 | 86 | 1054.9 |
| 20260901212003 | 68 | 232 | 1.0 | 3.0 | 0.00 | 0.00 | 0.00 | 86 | 1054.8 |
| 20260901211933 | 68 | 232 | 1.0 | 3.0 | 0.00 | 0.00 | 0.00 | 86 | 1054.8 |
| 20260901211928 | 68 | 232 | 1.0 | 3.0 | 0.00 | 0.00 | 0.00 | 86 | 1054.8 |
| 20260901211351 | 68 | 232 | 2.0 | 3.0 | 0.00 | 0.00 | 0.00 | 86 | 1054.8 |
| 20260901211343 | 68 | 233 | 2.0 | 3.0 | 0.00 | 0.00 | 0.00 | 86 | 1054.9 |
| 20260901211333 | 68 | 231 | 2.0 | 3.0 | 0.00 | 0.00 | 0.00 | 86 | 1054.9 |
| 20260901211324 | 68 | 233 | 2.0 | 3.0 | 0.00 | 0.00 | 0.00 | 86 | 1054.9 |
| 20260901211056 | 69 | 232 | 2.0 | 3.0 | 0.00 | 0.00 | 0.00 | 86 | 1054.8 |
| 20260901210734 | 69 | 232 | 2.0 | 3.0 | 0.00 | 0.00 | 0.00 | 86 | 1054.8 |
| 20260901210636 | 69 | 232 | 2.0 | 3.0 | 0.00 | 0.00 | 0.00 | 86 | 1054.7 |
| 20260901210533 | 69 | 232 | 2.0 | 3.0 | 0.00 | 0.00 | 0.00 | 86 | 1054.7 |
| 20260901210434 | 69 | 231 | 2.0 | 3.0 | 0.00 | 0.00 | 0.00 | 86 | 1054.8 |
| 20260901210425 | 69 | 232 | 2.0 | 3.0 | 0.00 | 0.00 | 0.00 | 85 | 1054.7 |
| 20260901210408 | 69 | 232 | 2.0 | 3.0 | 0.00 | 0.00 | 0.00 | 85 | 1054.7 |
| 20260901210134 | 69 | 233 | 2.0 | 3.0 | 0.00 | 0.00 | 0.00 | 86 | 1054.7 |
| 20260901210028 | 69 | 232 | 2.0 | 3.0 | 0.00 | 0.00 | 0.00 | 86 | 1054.7 |
| 20260901210011 | 69 | 232 | 2.0 | 3.0 | 0.00 | 0.00 | 0.00 | 86 | 1054.7 |
| 20260901210003 | 69 | 232 | 2.0 | 3.0 | 0.00 | 0.00 | 0.00 | 86 | 1054.7 |
| 20260901205948 | 69 | 232 | 2.0 | 3.0 | 0.00 | 0.00 | 0.00 | 86 | 1054.7 |
| 20260901205725 | 69 | 232 | 2.0 | 3.0 | 0.00 | 0.00 | 0.00 | 85 | 1054.6 |
| 20260901205711 | 69 | 232 | 2.0 | 3.0 | 0.00 | 0.00 | 0.00 | 85 | 1054.6 |
| 20260901205702 | 69 | 232 | 2.0 | 3.0 | 0.00 | 0.00 | 0.00 | 85 | 1054.6 |
| 20260901205425 | 69 | 232 | 2.0 | 3.0 | 0.00 | 0.00 | 0.00 | 85 | 1054.6 |
| 20260901205149 | 69 | 232 | 2.0 | 3.0 | 0.00 | 0.00 | 0.00 | 85 | 1054.6 |
| 20260901205138 | 69 | 232 | 2.0 | 3.0 | 0.00 | 0.00 | 0.00 | 85 | 1054.6 |
| 20260901205131 | 69 | 232 | 2.0 | 3.0 | 0.00 | 0.00 | 0.00 | 85 | 1054.6 |
| 20260901205120 | 69 | 232 | 2.0 | 3.0 | 0.00 | 0.00 | 0.00 | 85 | 1054.6 |
| 20260901204625 | 69 | 232 | 2.0 | 3.0 | 0.00 | 0.00 | 0.00 | 85 | 1054.6 |
| 20260901204523 | 69 | 233 | 2.0 | 3.0 | 0.00 | 0.00 | 0.00 | 85 | 1054.6 |
| 20260901204423 | 69 | 232 | 2.0 | 3.0 | 0.00 | 0.00 | 0.00 | 85 | 1054.6 |
| 20260901204321 | 69 | 232 | 2.0 | 3.0 | 0.00 | 0.00 | 0.00 | 85 | 1054.6 |
| 20260901204225 | 69 | 232 | 2.0 | 3.0 | 0.00 | 0.00 | 0.00 | 85 | 1054.6 |
| 20260901204212 | 69 | 232 | 2.0 | 3.0 | 0.00 | 0.00 | 0.00 | 85 | 1054.6 |
| 20260901204201 | 69 | 231 | 2.0 | 3.0 | 0.00 | 0.00 | 0.00 | 85 | 1054.6 |
| 20260901204151 | 69 | 232 | 2.0 | 3.0 | 0.00 | 0.00 | 0.00 | 85 | 1054.6 |
| 20260901204141 | 69 | 232 | 2.0 | 3.0 | 0.00 | 0.00 | 0.00 | 85 | 1054.6 |
| 20260901204125 | 69 | 232 | 2.0 | 3.0 | 0.00 | 0.00 | 0.00 | 85 | 1054.6 |
| 20260901203619 | 69 | 232 | 2.0 | 3.0 | 0.00 | 0.00 | 0.00 | 85 | 1054.5 |
| 20260901203517 | 69 | 232 | 2.0 | 3.0 | 0.00 | 0.00 | 0.00 | 85 | 1054.6 |
| 20260901203420 | 69 | 232 | 2.0 | 3.0 | 0.00 | 0.00 | 0.00 | 85 | 1054.6 |
| 20260901203409 | 69 | 232 | 2.0 | 4.0 | 0.00 | 0.00 | 0.00 | 85 | 1054.6 |
| 20260901203354 | 70 | 232 | 2.0 | 4.0 | 0.00 | 0.00 | 0.00 | 85 | 1054.5 |
| 20260901203114 | 70 | 232 | 2.0 | 4.0 | 0.00 | 0.00 | 0.00 | 85 | 1054.6 |
| 20260901203015 | 70 | 233 | 2.0 | 4.0 | 0.00 | 0.00 | 0.00 | 84 | 1054.5 |
| 20260901202913 | 70 | 232 | 2.0 | 4.0 | 0.00 | 0.00 | 0.00 | 84 | 1054.5 |
| 20260901202813 | 70 | 233 | 2.0 | 4.0 | 0.00 | 0.00 | 0.00 | 84 | 1054.5 |
| 20260901202712 | 70 | 232 | 2.0 | 4.0 | 0.00 | 0.00 | 0.00 | 84 | 1054.5 |
| 20260901202613 | 70 | 232 | 2.0 | 4.0 | 0.00 | 0.00 | 0.00 | 84 | 1054.5 |
| 20260901202512 | 70 | 231 | 2.0 | 4.0 | 0.00 | 0.00 | 0.00 | 84 | 1054.4 |
| 20260901202428 | 70 | 232 | 2.0 | 4.0 | 0.00 | 0.00 | 0.00 | 84 | 1054.4 |
| 20260901202412 | 70 | 232 | 2.0 | 4.0 | 0.00 | 0.00 | 0.00 | 84 | 1054.4 |
| 20260901202358 | 70 | 232 | 2.0 | 4.0 | 0.00 | 0.00 | 0.00 | 84 | 1054.4 |
| 20260901202108 | 70 | 231 | 2.0 | 4.0 | 0.00 | 0.00 | 0.00 | 84 | 1054.4 |
| 20260901202008 | 70 | 232 | 2.0 | 4.0 | 0.00 | 0.00 | 0.00 | 84 | 1054.4 |
| 20260901201909 | 70 | 232 | 2.0 | 4.0 | 0.00 | 0.00 | 0.00 | 84 | 1054.4 |
| 20260901201807 | 70 | 231 | 2.0 | 4.0 | 0.00 | 0.00 | 0.00 | 84 | 1054.4 |
| 20260901201706 | 70 | 231 | 2.0 | 4.0 | 0.00 | 0.00 | 0.00 | 84 | 1054.4 |
| 20260901201640 | 70 | 232 | 2.0 | 4.0 | 0.00 | 0.00 | 0.00 | 84 | 1054.4 |
| 20260901201633 | 70 | 231 | 3.0 | 4.0 | 0.00 | 0.00 | 0.00 | 84 | 1054.4 |
| 20260901201625 | 70 | 232 | 3.0 | 4.0 | 0.00 | 0.00 | 0.00 | 84 | 1054.4 |
| 20260901201341 | 70 | 231 | 2.0 | 4.0 | 0.00 | 0.00 | 0.00 | 84 | 1054.4 |
| 20260901201330 | 70 | 231 | 2.0 | 4.0 | 0.00 | 0.00 | 0.00 | 83 | 1054.4 |
| 20260901201319 | 70 | 231 | 2.0 | 4.0 | 0.00 | 0.00 | 0.00 | 83 | 1054.4 |
| 20260901201001 | 70 | 231 | 2.0 | 4.0 | 0.00 | 0.00 | 0.00 | 83 | 1054.3 |
| 20260901200901 | 71 | 231 | 2.0 | 4.0 | 0.00 | 0.00 | 0.00 | 83 | 1054.3 |
| 20260901200800 | 71 | 231 | 1.0 | 4.0 | 0.00 | 0.00 | 0.00 | 83 | 1054.3 |
| 20260901200701 | 71 | 231 | 1.0 | 4.0 | 0.00 | 0.00 | 0.00 | 83 | 1054.3 |
| 20260901200636 | 71 | 212 | 1.0 | 4.0 | 0.00 | 0.00 | 0.00 | 83 | 1054.3 |
| 20260901200601 | 71 | 211 | 1.0 | 4.0 | 0.00 | 0.00 | 0.00 | 83 | 1054.3 |
| 20260901200501 | 71 | 202 | 0.0 | 3.0 | 0.00 | 0.00 | 0.00 | 83 | 1054.3 |
| 20260901200401 | 71 | 202 | 1.0 | 2.0 | 0.00 | 0.00 | 0.00 | 83 | 1054.2 |
| 20260901200301 | 71 | 201 | 1.0 | 3.0 | 0.00 | 0.00 | 0.00 | 83 | 1054.2 |
| 20260901200201 | 71 | 202 | 1.0 | 3.0 | 0.00 | 0.00 | 0.00 | 83 | 1054.3 |
| 20260901200137 | 71 | 202 | 1.0 | 4.0 | 0.00 | 0.00 | 0.00 | 83 | 1054.3 |
| 20260901200101 | 71 | 202 | 1.0 | 4.0 | 0.00 | 0.00 | 0.00 | 83 | 1054.2 |
| 20260901200001 | 71 | 202 | 1.0 | 4.0 | 0.00 | 0.00 | 0.00 | 82 | 1054.2 |
| 20260901195936 | 71 | 202 | 1.0 | 4.0 | 0.00 | 0.00 | 0.00 | 82 | 1054.2 |
| 20260901195928 | 71 | 202 | 1.0 | 4.0 | 0.00 | 0.00 | 0.00 | 82 | 1054.2 |
| 20260901195637 | 71 | 204 | 2.0 | 4.0 | 0.00 | 0.00 | 0.00 | 82 | 1054.2 |
| 20260901195601 | 71 | 202 | 2.0 | 4.0 | 0.00 | 0.00 | 0.00 | 82 | 1054.2 |
| 20260901195501 | 71 | 202 | 2.0 | 4.0 | 0.00 | 0.00 | 0.00 | 82 | 1054.1 |
| 20260901195417 | 71 | 201 | 1.0 | 4.0 | 0.00 | 0.00 | 0.00 | 82 | 1054.1 |
| 20260901195406 | 71 | 202 | 1.0 | 4.0 | 0.00 | 0.00 | 0.00 | 82 | 1054.1 |
| 20260901195353 | 71 | 201 | 1.0 | 4.0 | 0.00 | 0.00 | 0.00 | 82 | 1054.1 |
| 20260901195349 | 71 | 201 | 1.0 | 3.0 | 0.00 | 0.00 | 0.00 | 82 | 1054.1 |
| 20260901195338 | 71 | 201 | 1.0 | 3.0 | 0.00 | 0.00 | 0.00 | 82 | 1054.0 |
| 20260901195329 | 71 | 203 | 1.0 | 3.0 | 0.00 | 0.00 | 0.00 | 82 | 1054.0 |
| 20260901195316 | 72 | 201 | 0.0 | 3.0 | 0.00 | 0.00 | 0.00 | 82 | 1054.0 |
| 20260901194829 | 72 | 201 | 0.0 | 3.0 | 0.00 | 0.00 | 0.00 | 81 | 1054.0 |
| 20260901194506 | 72 | 201 | 0.0 | 0.0 | 0.00 | 0.00 | 0.00 | 81 | 1054.0 |
| 20260901194456 | 72 | 201 | 0.0 | 0.0 | 0.00 | 0.00 | 0.00 | 81 | 1054.0 |
| 20260901194443 | 72 | 201 | 0.0 | 0.0 | 0.00 | 0.00 | 0.00 | 81 | 1054.1 |
| 20260901194431 | 72 | 201 | 0.0 | 0.0 | 0.00 | 0.00 | 0.00 | 81 | 1054.1 |
| 20260901194207 | 72 | 201 | 0.0 | 0.0 | 0.00 | 0.00 | 0.00 | 81 | 1054.1 |
| 20260901194157 | 72 | 201 | 0.0 | 0.0 | 0.00 | 0.00 | 0.00 | 81 | 1054.1 |
| 20260901193927 | 72 | 201 | 0.0 | 2.0 | 0.00 | 0.00 | 0.00 | 80 | 1054.1 |
| 20260901193635 | 72 | 201 | 1.0 | 3.0 | 0.00 | 0.00 | 0.00 | 80 | 1054.0 |
| 20260901193600 | 72 | 201 | 1.0 | 3.0 | 0.00 | 0.00 | 0.00 | 80 | 1054.0 |
| 20260901193501 | 73 | 201 | 1.0 | 3.0 | 0.00 | 0.00 | 0.00 | 80 | 1054.0 |
| 20260901193400 | 73 | 201 | 1.0 | 3.0 | 0.00 | 0.00 | 0.00 | 80 | 1054.0 |
| 20260901193301 | 73 | 201 | 1.0 | 3.0 | 0.00 | 0.00 | 0.00 | 80 | 1054.0 |
| 20260901193201 | 73 | 201 | 1.0 | 3.0 | 0.00 | 0.00 | 0.00 | 80 | 1054.0 |
| 20260901193131 | 73 | 201 | 1.0 | 3.0 | 0.00 | 0.00 | 0.00 | 80 | 1054.0 |
| 20260901193100 | 73 | 201 | 1.0 | 3.0 | 0.00 | 0.00 | 0.00 | 80 | 1054.0 |
| 20260901193000 | 73 | 201 | 1.0 | 3.0 | 0.00 | 0.00 | 0.00 | 80 | 1054.0 |
| 20260901192901 | 73 | 202 | 1.0 | 3.0 | 0.00 | 0.00 | 0.00 | 80 | 1054.0 |
| 20260901192800 | 73 | 201 | 1.0 | 3.0 | 0.00 | 0.00 | 0.00 | 79 | 1053.9 |
| 20260901192701 | 73 | 201 | 1.0 | 3.0 | 0.00 | 0.00 | 0.00 | 79 | 1053.9 |
| 20260901192600 | 73 | 201 | 1.0 | 3.0 | 0.00 | 0.00 | 0.00 | 79 | 1053.9 |
| 20260901192500 | 73 | 201 | 1.0 | 3.0 | 0.00 | 0.00 | 0.00 | 79 | 1053.8 |
| 20260901192401 | 73 | 201 | 2.0 | 3.0 | 0.00 | 0.00 | 0.00 | 79 | 1053.8 |
| 20260901192300 | 73 | 201 | 1.0 | 3.0 | 0.00 | 0.00 | 0.00 | 79 | 1053.8 |
| 20260901192200 | 73 | 201 | 1.0 | 3.0 | 0.00 | 0.00 | 0.00 | 79 | 1053.8 |
| 20260901192132 | 73 | 201 | 1.0 | 3.0 | 0.00 | 0.00 | 0.00 | 79 | 1053.8 |
| 20260901192100 | 74 | 201 | 1.0 | 3.0 | 0.00 | 0.00 | 0.00 | 78 | 1053.8 |
| 20260901192005 | 74 | 201 | 1.0 | 3.0 | 0.00 | 0.00 | 0.00 | 78 | 1053.8 |
| 20260901191956 | 74 | 201 | 1.0 | 3.0 | 0.00 | 0.00 | 0.00 | 78 | 1053.8 |
| 20260901191938 | 74 | 201 | 1.0 | 3.0 | 0.00 | 0.00 | 0.00 | 78 | 1053.8 |
| 20260901191713 | 74 | 201 | 1.0 | 3.0 | 0.00 | 0.00 | 0.00 | 78 | 1053.9 |
| 20260901191704 | 74 | 201 | 1.0 | 3.0 | 0.00 | 0.00 | 0.00 | 78 | 1053.9 |
| 20260901191651 | 74 | 201 | 1.0 | 3.0 | 0.00 | 0.00 | 0.00 | 78 | 1053.9 |
| 20260901191422 | 74 | 201 | 1.0 | 2.0 | 0.00 | 0.00 | 0.00 | 78 | 1053.8 |
| 20260901191131 | 74 | 201 | 1.0 | 3.0 | 0.00 | 0.00 | 0.00 | 78 | 1053.8 |
| 20260901191056 | 74 | 201 | 1.0 | 3.0 | 0.00 | 0.00 | 0.00 | 78 | 1053.8 |
| 20260901190956 | 74 | 201 | 1.0 | 4.0 | 0.00 | 0.00 | 0.00 | 78 | 1053.7 |
| 20260901190857 | 74 | 201 | 1.0 | 4.0 | 0.00 | 0.00 | 0.00 | 78 | 1053.7 |
| 20260901190757 | 74 | 201 | 1.0 | 4.0 | 0.00 | 0.00 | 0.00 | 78 | 1053.8 |
| 20260901190631 | 74 | 201 | 1.0 | 4.0 | 0.00 | 0.00 | 0.00 | 77 | 1053.7 |
| 20260901190556 | 74 | 201 | 1.0 | 4.0 | 0.00 | 0.00 | 0.00 | 77 | 1053.8 |
| 20260901190543 | 74 | 201 | 1.0 | 4.0 | 0.00 | 0.00 | 0.00 | 77 | 1053.8 |
| 20260901190535 | 74 | 201 | 2.0 | 4.0 | 0.00 | 0.00 | 0.00 | 77 | 1053.7 |
| 20260901190140 | 75 | 201 | 2.0 | 4.0 | 0.00 | 0.00 | 0.00 | 77 | 1053.7 |
| 20260901190129 | 75 | 200 | 2.0 | 4.0 | 0.00 | 0.00 | 0.00 | 77 | 1053.8 |
| 20260901190121 | 75 | 200 | 1.0 | 4.0 | 0.00 | 0.00 | 0.00 | 77 | 1053.7 |
| 20260901190108 | 75 | 201 | 1.0 | 4.0 | 0.00 | 0.00 | 0.00 | 77 | 1053.8 |
| 20260901190045 | 75 | 201 | 1.0 | 3.0 | 0.00 | 0.00 | 0.00 | 76 | 1053.7 |
| 20260901185821 | 75 | 200 | 1.0 | 3.0 | 0.00 | 0.00 | 0.00 | 76 | 1053.7 |
| 20260901185456 | 75 | 200 | 1.0 | 3.0 | 0.00 | 0.00 | 0.00 | 76 | 1053.7 |
| 20260901185357 | 75 | 199 | 0.0 | 3.0 | 0.00 | 0.00 | 0.00 | 76 | 1053.7 |
| 20260901185256 | 75 | 194 | 0.0 | 3.0 | 0.00 | 0.00 | 0.00 | 76 | 1053.7 |
| 20260901185147 | 76 | 193 | 0.0 | 2.0 | 0.00 | 0.00 | 0.00 | 76 | 1053.7 |
| 20260901185138 | 76 | 193 | 0.0 | 2.0 | 0.00 | 0.00 | 0.00 | 76 | 1053.6 |
| 20260901185127 | 76 | 193 | 0.0 | 2.0 | 0.00 | 0.00 | 0.00 | 75 | 1053.6 |
| 20260901184756 | 76 | 193 | 0.0 | 2.0 | 0.00 | 0.00 | 0.00 | 75 | 1053.5 |
| 20260901184632 | 76 | 193 | 0.0 | 2.0 | 0.00 | 0.00 | 0.00 | 75 | 1053.5 |
| 20260901184557 | 76 | 193 | 0.0 | 2.0 | 0.00 | 0.00 | 0.00 | 75 | 1053.5 |
| 20260901184457 | 76 | 193 | 0.0 | 2.0 | 0.00 | 0.00 | 0.00 | 75 | 1053.5 |
| 20260901184352 | 76 | 193 | 0.0 | 3.0 | 0.00 | 0.00 | 0.00 | 74 | 1053.5 |
| 20260901184253 | 76 | 193 | 0.0 | 3.0 | 0.00 | 0.00 | 0.00 | 74 | 1053.5 |
| 20260901184131 | 76 | 193 | 0.0 | 3.0 | 0.00 | 0.00 | 0.00 | 75 | 1053.5 |
| 20260901184052 | 76 | 193 | 0.0 | 3.0 | 0.00 | 0.00 | 0.00 | 74 | 1053.5 |
| 20260901184029 | 76 | 193 | 0.0 | 3.0 | 0.00 | 0.00 | 0.00 | 74 | 1053.5 |
| 20260901184021 | 76 | 193 | 0.0 | 3.0 | 0.00 | 0.00 | 0.00 | 74 | 1053.5 |
| 20260901183625 | 76 | 193 | 0.0 | 3.0 | 0.00 | 0.00 | 0.00 | 74 | 1053.5 |
| 20260901183553 | 76 | 194 | 0.0 | 3.0 | 0.00 | 0.00 | 0.00 | 74 | 1053.5 |
| 20260901183453 | 76 | 193 | 0.0 | 3.0 | 0.00 | 0.00 | 0.00 | 74 | 1053.4 |
| 20260901183352 | 76 | 193 | 0.0 | 3.0 | 0.00 | 0.00 | 0.00 | 74 | 1053.5 |
| 20260901183252 | 77 | 193 | 0.0 | 1.0 | 0.00 | 0.00 | 0.00 | 74 | 1053.5 |
| 20260901183125 | 77 | 193 | 0.0 | 1.0 | 0.00 | 0.00 | 0.00 | 74 | 1053.5 |
| 20260901183053 | 77 | 193 | 0.0 | 1.0 | 0.00 | 0.00 | 0.00 | 74 | 1053.5 |
| 20260901183031 | 77 | 193 | 0.0 | 1.0 | 0.00 | 0.00 | 0.00 | 74 | 1053.5 |
| 20260901183022 | 77 | 193 | 0.0 | 1.0 | 0.00 | 0.00 | 0.00 | 74 | 1053.4 |
| 20260901182653 | 77 | 193 | 0.0 | 1.0 | 0.00 | 0.00 | 0.00 | 73 | 1053.4 |
| 20260901182625 | 77 | 193 | 0.0 | 0.0 | 0.00 | 0.00 | 0.00 | 73 | 1053.4 |
| 20260901182553 | 77 | 193 | 0.0 | 0.0 | 0.00 | 0.00 | 0.00 | 73 | 1053.4 |
| 20260901182523 | 77 | 193 | 0.0 | 0.0 | 0.00 | 0.00 | 0.00 | 73 | 1053.4 |
| 20260901182515 | 77 | 193 | 0.0 | 0.0 | 0.00 | 0.00 | 0.00 | 73 | 1053.4 |
| 20260901182125 | 77 | 193 | 0.0 | 0.0 | 0.00 | 0.00 | 0.00 | 73 | 1053.3 |
| 20260901182052 | 77 | 194 | 0.0 | 0.0 | 0.00 | 0.00 | 0.00 | 72 | 1053.3 |
| 20260901181953 | 77 | 193 | 0.0 | 0.0 | 0.00 | 0.00 | 0.00 | 72 | 1053.3 |
| 20260901181853 | 78 | 193 | 0.0 | 0.0 | 0.00 | 0.00 | 0.00 | 72 | 1053.2 |
| 20260901181744 | 78 | 193 | 0.0 | 0.0 | 0.00 | 0.00 | 0.00 | 72 | 1053.2 |
| 20260901181714 | 78 | 193 | 0.0 | 2.0 | 0.00 | 0.00 | 0.00 | 72 | 1053.2 |
| 20260901181707 | 78 | 193 | 0.0 | 2.0 | 0.00 | 0.00 | 0.00 | 72 | 1053.2 |
| 20260901181412 | 78 | 193 | 0.0 | 2.0 | 0.00 | 0.00 | 0.00 | 71 | 1053.2 |
| 20260901181403 | 78 | 193 | 0.0 | 2.0 | 0.00 | 0.00 | 0.00 | 71 | 1053.2 |
| 20260901181342 | 78 | 193 | 1.0 | 3.0 | 0.00 | 0.00 | 0.00 | 71 | 1053.2 |
| 20260901181041 | 78 | 193 | 1.0 | 3.0 | 0.00 | 0.00 | 0.00 | 71 | 1053.3 |
| 20260901180938 | 78 | 193 | 1.0 | 3.0 | 0.00 | 0.00 | 0.00 | 71 | 1053.2 |
| 20260901180838 | 78 | 193 | 1.0 | 3.0 | 0.00 | 0.00 | 0.00 | 71 | 1053.3 |
| 20260901180738 | 78 | 193 | 1.0 | 3.0 | 0.00 | 0.00 | 0.00 | 71 | 1053.3 |
| 20260901180624 | 78 | 193 | 1.0 | 3.0 | 0.00 | 0.00 | 0.00 | 71 | 1053.3 |
| 20260901180539 | 78 | 193 | 2.0 | 3.0 | 0.00 | 0.00 | 0.00 | 71 | 1053.3 |
| 20260901180438 | 78 | 193 | 2.0 | 3.0 | 0.00 | 0.00 | 0.00 | 71 | 1053.3 |
| 20260901180409 | 78 | 193 | 2.0 | 3.0 | 0.00 | 0.00 | 0.00 | 71 | 1053.4 |
| 20260901180400 | 78 | 193 | 2.0 | 4.0 | 0.00 | 0.00 | 0.00 | 71 | 1053.5 |
| 20260901180344 | 78 | 193 | 2.0 | 4.0 | 0.00 | 0.00 | 0.00 | 71 | 1053.5 |
| 20260901180033 | 78 | 194 | 2.0 | 4.0 | 0.00 | 0.00 | 0.00 | 71 | 1053.4 |
| 20260901175932 | 78 | 194 | 2.0 | 4.0 | 0.00 | 0.00 | 0.00 | 71 | 1053.5 |
| 20260901175831 | 78 | 193 | 2.0 | 4.0 | 0.00 | 0.00 | 0.00 | 71 | 1053.5 |
| 20260901175730 | 78 | 193 | 2.0 | 4.0 | 0.00 | 0.00 | 0.00 | 71 | 1053.5 |
| 20260901175629 | 78 | 194 | 2.0 | 4.0 | 0.00 | 0.00 | 0.00 | 71 | 1053.5 |
| 20260901175625 | 78 | 193 | 2.0 | 4.0 | 0.00 | 0.00 | 0.00 | 71 | 1053.5 |
| 20260901175529 | 78 | 193 | 2.0 | 4.0 | 0.00 | 0.00 | 0.00 | 71 | 1053.6 |
| 20260901175500 | 78 | 193 | 2.0 | 4.0 | 0.00 | 0.00 | 0.00 | 70 | 1053.6 |
| 20260901175452 | 78 | 194 | 2.0 | 4.0 | 0.00 | 0.00 | 0.00 | 70 | 1053.6 |
| 20260901175124 | 78 | 192 | 2.0 | 4.0 | 0.00 | 0.00 | 0.00 | 70 | 1053.6 |
| 20260901175027 | 78 | 192 | 2.0 | 4.0 | 0.00 | 0.00 | 0.00 | 70 | 1053.6 |
| 20260901174925 | 78 | 193 | 2.0 | 4.0 | 0.00 | 0.00 | 0.00 | 70 | 1053.6 |
| 20260901174825 | 78 | 193 | 2.0 | 5.0 | 0.00 | 0.00 | 0.00 | 70 | 1053.6 |
| 20260901174722 | 78 | 193 | 2.0 | 7.0 | 0.00 | 0.00 | 0.00 | 70 | 1053.6 |
| 20260901174650 | 78 | 193 | 3.0 | 9.0 | 0.00 | 0.00 | 0.00 | 70 | 1053.6 |
| 20260901174639 | 78 | 193 | 3.0 | 9.0 | 0.00 | 0.00 | 0.00 | 70 | 1053.6 |
| 20260901174318 | 78 | 155 | 3.0 | 9.0 | 0.00 | 0.00 | 0.00 | 70 | 1053.7 |
| 20260901174217 | 78 | 155 | 3.0 | 9.0 | 0.00 | 0.00 | 0.00 | 70 | 1053.7 |
| 20260901174120 | 79 | 154 | 3.0 | 9.0 | 0.00 | 0.00 | 0.00 | 70 | 1053.8 |
| 20260901174115 | 79 | 154 | 4.0 | 9.0 | 0.00 | 0.00 | 0.00 | 70 | 1053.9 |
| 20260901174026 | 79 | 154 | 4.0 | 9.0 | 0.00 | 0.00 | 0.00 | 70 | 1053.9 |
| 20260901174018 | 79 | 154 | 4.0 | 9.0 | 0.00 | 0.00 | 0.00 | 70 | 1053.9 |
| 20260901174007 | 79 | 154 | 4.0 | 9.0 | 0.00 | 0.00 | 0.00 | 70 | 1053.9 |
| 20260901173955 | 79 | 210 | 4.0 | 9.0 | 0.00 | 0.00 | 0.00 | 70 | 1053.9 |
| 20260901173945 | 79 | 233 | 3.0 | 7.0 | 0.00 | 0.00 | 0.00 | 70 | 1053.9 |
| 20260901173940 | 79 | 196 | 3.0 | 7.0 | 0.00 | 0.00 | 0.00 | 70 | 1053.9 |
| 20260901173438 | 79 | 195 | 3.0 | 7.0 | 0.00 | 0.00 | 0.00 | 70 | 1053.9 |
| 20260901173113 | 79 | 191 | 3.0 | 7.0 | 0.00 | 0.00 | 0.00 | 70 | 1054.0 |
| 20260901173108 | 79 | 192 | 3.0 | 7.0 | 0.00 | 0.00 | 0.00 | 70 | 1053.9 |
| 20260901173013 | 79 | 166 | 3.0 | 7.0 | 0.00 | 0.00 | 0.00 | 70 | 1053.9 |
| 20260901172912 | 79 | 170 | 2.0 | 6.0 | 0.00 | 0.00 | 0.00 | 70 | 1054.0 |
| 20260901172808 | 79 | 177 | 2.0 | 6.0 | 0.00 | 0.00 | 0.00 | 70 | 1053.9 |
| 20260901172707 | 79 | 164 | 3.0 | 6.0 | 0.00 | 0.00 | 0.00 | 71 | 1054.0 |
| 20260901172608 | 79 | 213 | 3.0 | 6.0 | 0.00 | 0.00 | 0.00 | 71 | 1054.0 |
| 20260901172533 | 78 | 260 | 3.0 | 6.0 | 0.00 | 0.00 | 0.00 | 71 | 1054.0 |
| 20260901172525 | 78 | 260 | 3.0 | 6.0 | 0.00 | 0.00 | 0.00 | 71 | 1054.0 |
| 20260901172203 | 78 | 179 | 3.0 | 6.0 | 0.00 | 0.00 | 0.00 | 70 | 1054.0 |
| 20260901172102 | 78 | 179 | 3.0 | 6.0 | 0.00 | 0.00 | 0.00 | 71 | 1054.0 |
| 20260901172003 | 78 | 175 | 3.0 | 6.0 | 0.00 | 0.00 | 0.00 | 71 | 1054.1 |
| 20260901171902 | 78 | 224 | 3.0 | 6.0 | 0.00 | 0.00 | 0.00 | 71 | 1054.1 |
| 20260901171802 | 78 | 224 | 3.0 | 6.0 | 0.00 | 0.00 | 0.00 | 71 | 1054.1 |
| 20260901171703 | 78 | 196 | 3.0 | 6.0 | 0.00 | 0.00 | 0.00 | 71 | 1054.1 |
| 20260901171614 | 78 | 188 | 3.0 | 6.0 | 0.00 | 0.00 | 0.00 | 71 | 1054.1 |
| 20260901171602 | 78 | 189 | 3.0 | 6.0 | 0.00 | 0.00 | 0.00 | 71 | 1054.1 |
| 20260901171502 | 78 | 181 | 3.0 | 6.0 | 0.00 | 0.00 | 0.00 | 71 | 1054.1 |
| 20260901171401 | 78 | 180 | 3.0 | 7.0 | 0.00 | 0.00 | 0.00 | 71 | 1054.1 |
| 20260901171301 | 78 | 180 | 3.0 | 8.0 | 0.00 | 0.00 | 0.00 | 71 | 1054.1 |
| 20260901171238 | 78 | 188 | 3.0 | 8.0 | 0.00 | 0.00 | 0.00 | 71 | 1054.1 |
| 20260901171222 | 78 | 121 | 3.0 | 8.0 | 0.00 | 0.00 | 0.00 | 71 | 1054.1 |
| 20260901170900 | 78 | 207 | 4.0 | 8.0 | 0.00 | 0.00 | 0.00 | 71 | 1054.2 |
| 20260901170846 | 78 | 206 | 4.0 | 8.0 | 0.00 | 0.00 | 0.00 | 71 | 1054.2 |
| 20260901170837 | 78 | 184 | 4.0 | 8.0 | 0.00 | 0.00 | 0.00 | 71 | 1054.2 |
| 20260901170828 | 78 | 183 | 4.0 | 8.0 | 0.00 | 0.00 | 0.00 | 71 | 1054.2 |
| 20260901170817 | 78 | 183 | 4.0 | 8.0 | 0.00 | 0.00 | 0.00 | 71 | 1054.2 |
| 20260901170547 | 78 | 139 | 4.0 | 9.0 | 0.00 | 0.00 | 0.00 | 70 | 1054.3 |
| 20260901170533 | 78 | 185 | 4.0 | 9.0 | 0.00 | 0.00 | 0.00 | 70 | 1054.3 |
| 20260901170521 | 78 | 128 | 4.0 | 9.0 | 0.00 | 0.00 | 0.00 | 70 | 1054.3 |
| 20260901170240 | 78 | 225 | 4.0 | 9.0 | 0.00 | 0.00 | 0.00 | 70 | 1054.3 |
| 20260901170231 | 78 | 198 | 4.0 | 9.0 | 0.00 | 0.00 | 0.00 | 70 | 1054.3 |
| 20260901170224 | 78 | 210 | 4.0 | 10.0 | 0.00 | 0.00 | 0.00 | 70 | 1054.2 |
| 20260901170208 | 78 | 258 | 4.0 | 10.0 | 0.00 | 0.00 | 0.00 | 70 | 1054.2 |
| 20260901170156 | 78 | 231 | 5.0 | 10.0 | 0.00 | 0.00 | 0.00 | 70 | 1054.2 |
| 20260901165718 | 78 | 199 | 5.0 | 11.0 | 0.00 | 0.00 | 0.00 | 70 | 1054.2 |
| 20260901165710 | 78 | 168 | 5.0 | 11.0 | 0.00 | 0.00 | 0.00 | 70 | 1054.3 |
| 20260901165223 | 78 | 191 | 5.0 | 11.0 | 0.00 | 0.00 | 0.00 | 70 | 1054.4 |
| 20260901165216 | 78 | 191 | 5.0 | 11.0 | 0.00 | 0.00 | 0.00 | 70 | 1054.4 |
| 20260901164848 | 78 | 159 | 5.0 | 11.0 | 0.00 | 0.00 | 0.00 | 70 | 1054.5 |
| 20260901164748 | 78 | 231 | 4.0 | 11.0 | 0.00 | 0.00 | 0.00 | 69 | 1054.3 |
| 20260901164648 | 78 | 205 | 4.0 | 11.0 | 0.00 | 0.00 | 0.00 | 69 | 1054.5 |
| 20260901164604 | 78 | 241 | 4.0 | 11.0 | 0.00 | 0.00 | 0.00 | 69 | 1054.3 |
| 20260901164549 | 78 | 162 | 4.0 | 11.0 | 0.00 | 0.00 | 0.00 | 69 | 1054.3 |
| 20260901164448 | 78 | 220 | 4.0 | 11.0 | 0.00 | 0.00 | 0.00 | 69 | 1054.3 |
| 20260901164409 | 78 | 156 | 5.0 | 11.0 | 0.00 | 0.00 | 0.00 | 69 | 1054.3 |
| 20260901164400 | 79 | 175 | 4.0 | 11.0 | 0.00 | 0.00 | 0.00 | 69 | 1054.3 |
| 20260901164345 | 79 | 225 | 4.0 | 9.0 | 0.00 | 0.00 | 0.00 | 69 | 1054.3 |
| 20260901164337 | 79 | 233 | 4.0 | 8.0 | 0.00 | 0.00 | 0.00 | 69 | 1054.3 |
| 20260901164328 | 79 | 231 | 4.0 | 8.0 | 0.00 | 0.00 | 0.00 | 69 | 1054.3 |
| 20260901163749 | 79 | 237 | 4.0 | 8.0 | 0.00 | 0.00 | 0.00 | 69 | 1054.3 |
| 20260901163648 | 79 | 237 | 4.0 | 8.0 | 0.00 | 0.00 | 0.00 | 69 | 1054.2 |
| 20260901163603 | 79 | 228 | 4.0 | 8.0 | 0.00 | 0.00 | 0.00 | 69 | 1054.2 |
| 20260901163547 | 79 | 239 | 4.0 | 8.0 | 0.00 | 0.00 | 0.00 | 69 | 1054.2 |
| 20260901163446 | 79 | 235 | 4.0 | 9.0 | 0.00 | 0.00 | 0.00 | 69 | 1054.2 |
| 20260901163347 | 79 | 191 | 4.0 | 9.0 | 0.00 | 0.00 | 0.00 | 68 | 1054.2 |
| 20260901163247 | 79 | 234 | 4.0 | 9.0 | 0.00 | 0.00 | 0.00 | 68 | 1054.3 |
| 20260901163146 | 79 | 191 | 4.0 | 9.0 | 0.00 | 0.00 | 0.00 | 68 | 1054.3 |
| 20260901163103 | 79 | 242 | 4.0 | 9.0 | 0.00 | 0.00 | 0.00 | 68 | 1054.2 |
| 20260901163044 | 79 | 242 | 4.0 | 9.0 | 0.00 | 0.00 | 0.00 | 68 | 1054.2 |
| 20260901162945 | 79 | 201 | 4.0 | 9.0 | 0.00 | 0.00 | 0.00 | 68 | 1054.2 |
| 20260901162844 | 79 | 211 | 4.0 | 9.0 | 0.00 | 0.00 | 0.00 | 68 | 1054.2 |
| 20260901162743 | 79 | 231 | 4.0 | 9.0 | 0.00 | 0.00 | 0.00 | 68 | 1054.2 |
| 20260901162640 | 79 | 181 | 4.0 | 9.0 | 0.00 | 0.00 | 0.00 | 68 | 1054.3 |
| 20260901162603 | 79 | 171 | 4.0 | 9.0 | 0.00 | 0.00 | 0.00 | 68 | 1054.3 |
| 20260901162538 | 79 | 183 | 4.0 | 9.0 | 0.00 | 0.00 | 0.00 | 68 | 1054.3 |
| 20260901162438 | 79 | 225 | 5.0 | 9.0 | 0.00 | 0.00 | 0.00 | 68 | 1054.2 |
| 20260901162357 | 79 | 202 | 5.0 | 12.0 | 0.00 | 0.00 | 0.00 | 68 | 1054.3 |
| 20260901162341 | 79 | 177 | 5.0 | 12.0 | 0.00 | 0.00 | 0.00 | 68 | 1054.3 |
| 20260901162327 | 79 | 200 | 5.0 | 12.0 | 0.00 | 0.00 | 0.00 | 68 | 1054.3 |
| 20260901162034 | 79 | 259 | 5.0 | 12.0 | 0.00 | 0.00 | 0.00 | 68 | 1054.3 |
| 20260901161934 | 79 | 270 | 5.0 | 12.0 | 0.00 | 0.00 | 0.00 | 68 | 1054.3 |
| 20260901161834 | 79 | 213 | 6.0 | 12.0 | 0.00 | 0.00 | 0.00 | 68 | 1054.3 |
| 20260901161757 | 79 | 216 | 6.0 | 12.0 | 0.00 | 0.00 | 0.00 | 68 | 1054.3 |
| 20260901161745 | 79 | 224 | 5.0 | 12.0 | 0.00 | 0.00 | 0.00 | 67 | 1054.3 |
| 20260901161734 | 79 | 208 | 6.0 | 12.0 | 0.00 | 0.00 | 0.00 | 67 | 1054.4 |
| 20260901161719 | 79 | 204 | 6.0 | 12.0 | 0.00 | 0.00 | 0.00 | 67 | 1054.4 |
| 20260901161708 | 79 | 192 | 5.0 | 12.0 | 0.00 | 0.00 | 0.00 | 67 | 1054.5 |
| 20260901161438 | 79 | 132 | 5.0 | 11.0 | 0.00 | 0.00 | 0.00 | 67 | 1054.4 |
| 20260901161426 | 79 | 166 | 5.0 | 11.0 | 0.00 | 0.00 | 0.00 | 67 | 1054.5 |
| 20260901161419 | 79 | 204 | 5.0 | 11.0 | 0.00 | 0.00 | 0.00 | 67 | 1054.5 |
| 20260901161152 | 79 | 202 | 5.0 | 11.0 | 0.00 | 0.00 | 0.00 | 67 | 1054.5 |
| 20260901160924 | 80 | 108 | 5.0 | 11.0 | 0.00 | 0.00 | 0.00 | 67 | 1054.5 |
| 20260901160905 | 80 | 156 | 5.0 | 11.0 | 0.00 | 0.00 | 0.00 | 67 | 1054.5 |
| 20260901160859 | 80 | 168 | 5.0 | 11.0 | 0.00 | 0.00 | 0.00 | 67 | 1054.5 |
| 20260901160630 | 80 | 224 | 5.0 | 10.0 | 0.00 | 0.00 | 0.00 | 67 | 1054.5 |
| 20260901160608 | 80 | 204 | 5.0 | 10.0 | 0.00 | 0.00 | 0.00 | 67 | 1054.5 |
| 20260901160558 | 80 | 199 | 4.0 | 12.0 | 0.00 | 0.00 | 0.00 | 67 | 1054.5 |
| 20260901160541 | 80 | 185 | 5.0 | 12.0 | 0.00 | 0.00 | 0.00 | 67 | 1054.6 |
| 20260901160537 | 80 | 229 | 5.0 | 12.0 | 0.00 | 0.00 | 0.00 | 67 | 1054.5 |
| 20260901160029 | 80 | 215 | 5.0 | 12.0 | 0.00 | 0.00 | 0.00 | 67 | 1054.6 |
| 20260901155759 | 80 | 272 | 4.0 | 12.0 | 0.00 | 0.00 | 0.00 | 66 | 1054.7 |
| 20260901155754 | 80 | 149 | 4.0 | 12.0 | 0.00 | 0.00 | 0.00 | 66 | 1054.7 |
| 20260901155518 | 80 | 184 | 4.0 | 12.0 | 0.00 | 0.00 | 0.00 | 66 | 1054.7 |
| 20260901155508 | 80 | 138 | 4.0 | 12.0 | 0.00 | 0.00 | 0.00 | 66 | 1054.6 |
| 20260901155458 | 80 | 221 | 4.0 | 12.0 | 0.00 | 0.00 | 0.00 | 65 | 1054.6 |
| 20260901155447 | 80 | 216 | 4.0 | 12.0 | 0.00 | 0.00 | 0.00 | 65 | 1054.5 |
| 20260901155443 | 80 | 220 | 4.0 | 12.0 | 0.00 | 0.00 | 0.00 | 65 | 1054.5 |
| 20260901154949 | 80 | 171 | 4.0 | 10.0 | 0.00 | 0.00 | 0.00 | 65 | 1054.4 |
| 20260901154620 | 81 | 174 | 4.0 | 10.0 | 0.00 | 0.00 | 0.00 | 65 | 1054.3 |
| 20260901154603 | 81 | 170 | 4.0 | 10.0 | 0.00 | 0.00 | 0.00 | 65 | 1054.4 |
| 20260901154523 | 81 | 201 | 4.0 | 10.0 | 0.00 | 0.00 | 0.00 | 65 | 1054.4 |
| 20260901154451 | 81 | 122 | 5.0 | 9.0 | 0.00 | 0.00 | 0.00 | 64 | 1054.4 |
| 20260901154440 | 81 | 154 | 5.0 | 9.0 | 0.00 | 0.00 | 0.00 | 64 | 1054.5 |
| 20260901154114 | 81 | 214 | 4.0 | 9.0 | 0.00 | 0.00 | 0.00 | 64 | 1054.5 |
| 20260901154104 | 81 | 240 | 4.0 | 9.0 | 0.00 | 0.00 | 0.00 | 64 | 1054.5 |
| 20260901154014 | 81 | 158 | 4.0 | 9.0 | 0.00 | 0.00 | 0.00 | 64 | 1054.5 |
| 20260901153914 | 81 | 135 | 4.0 | 10.0 | 0.00 | 0.00 | 0.00 | 64 | 1054.5 |
| 20260901153813 | 81 | 160 | 4.0 | 11.0 | 0.00 | 0.00 | 0.00 | 64 | 1054.5 |
| 20260901153708 | 81 | 172 | 4.0 | 11.0 | 0.00 | 0.00 | 0.00 | 65 | 1054.5 |
| 20260901153610 | 81 | 193 | 4.0 | 11.0 | 0.00 | 0.00 | 0.00 | 65 | 1054.5 |
| 20260901153605 | 81 | 187 | 5.0 | 11.0 | 0.00 | 0.00 | 0.00 | 65 | 1054.5 |
| 20260901153508 | 81 | 207 | 5.0 | 11.0 | 0.00 | 0.00 | 0.00 | 65 | 1054.5 |
| 20260901153408 | 81 | 183 | 4.0 | 11.0 | 0.00 | 0.00 | 0.00 | 65 | 1054.4 |
| 20260901153307 | 81 | 233 | 4.0 | 11.0 | 0.00 | 0.00 | 0.00 | 65 | 1054.3 |
| 20260901153206 | 81 | 233 | 4.0 | 11.0 | 0.00 | 0.00 | 0.00 | 65 | 1054.3 |
| 20260901153104 | 81 | 236 | 4.0 | 11.0 | 0.00 | 0.00 | 0.00 | 65 | 1054.3 |
| 20260901153007 | 81 | 232 | 4.0 | 11.0 | 0.00 | 0.00 | 0.00 | 65 | 1054.3 |
| 20260901152904 | 81 | 219 | 4.0 | 11.0 | 0.00 | 0.00 | 0.00 | 65 | 1054.4 |
| 20260901152802 | 81 | 218 | 4.0 | 11.0 | 0.00 | 0.00 | 0.00 | 65 | 1054.3 |
| 20260901152713 | 81 | 216 | 4.0 | 11.0 | 0.00 | 0.00 | 0.00 | 65 | 1054.3 |
| 20260901152701 | 81 | 185 | 4.0 | 13.0 | 0.00 | 0.00 | 0.00 | 65 | 1054.3 |
| 20260901152657 | 81 | 166 | 4.0 | 13.0 | 0.00 | 0.00 | 0.00 | 65 | 1054.3 |
| 20260901152642 | 81 | 210 | 5.0 | 13.0 | 0.00 | 0.00 | 0.00 | 65 | 1054.3 |
| 20260901152633 | 81 | 212 | 5.0 | 13.0 | 0.00 | 0.00 | 0.00 | 65 | 1054.4 |
| 20260901152400 | 81 | 179 | 5.0 | 13.0 | 0.00 | 0.00 | 0.00 | 64 | 1054.6 |
| 20260901152349 | 81 | 175 | 5.0 | 13.0 | 0.00 | 0.00 | 0.00 | 64 | 1054.5 |
| 20260901152125 | 81 | 92 | 5.0 | 13.0 | 0.00 | 0.00 | 0.00 | 64 | 1054.5 |
| 20260901151801 | 81 | 223 | 5.0 | 13.0 | 0.00 | 0.00 | 0.00 | 64 | 1054.6 |
| 20260901151702 | 81 | 244 | 5.0 | 13.0 | 0.00 | 0.00 | 0.00 | 64 | 1054.6 |
| 20260901151603 | 81 | 134 | 5.0 | 11.0 | 0.00 | 0.00 | 0.00 | 65 | 1054.6 |
| 20260901151456 | 81 | 185 | 5.0 | 11.0 | 0.00 | 0.00 | 0.00 | 65 | 1054.6 |
| 20260901151446 | 81 | 215 | 5.0 | 11.0 | 0.00 | 0.00 | 0.00 | 66 | 1054.5 |
| 20260901151437 | 81 | 225 | 5.0 | 12.0 | 0.00 | 0.00 | 0.00 | 65 | 1054.6 |
| 20260901151419 | 81 | 181 | 6.0 | 12.0 | 0.00 | 0.00 | 0.00 | 65 | 1054.6 |
| 20260901151152 | 81 | 118 | 6.0 | 12.0 | 0.00 | 0.00 | 0.00 | 65 | 1054.6 |
| 20260901151140 | 81 | 133 | 6.0 | 12.0 | 0.00 | 0.00 | 0.00 | 65 | 1054.6 |
| 20260901151126 | 81 | 172 | 6.0 | 12.0 | 0.00 | 0.00 | 0.00 | 65 | 1054.7 |
| 20260901150857 | 81 | 212 | 5.0 | 12.0 | 0.00 | 0.00 | 0.00 | 66 | 1054.7 |
| 20260901150847 | 81 | 208 | 6.0 | 12.0 | 0.00 | 0.00 | 0.00 | 66 | 1054.7 |
| 20260901150839 | 81 | 263 | 6.0 | 12.0 | 0.00 | 0.00 | 0.00 | 66 | 1054.7 |
| 20260901150608 | 80 | 256 | 6.0 | 12.0 | 0.00 | 0.00 | 0.00 | 66 | 1054.7 |
| 20260901150544 | 80 | 222 | 6.0 | 13.0 | 0.00 | 0.00 | 0.00 | 66 | 1054.7 |
| 20260901150045 | 80 | 169 | 6.0 | 13.0 | 0.00 | 0.00 | 0.00 | 66 | 1054.6 |
| 20260901145936 | 80 | 268 | 6.0 | 13.0 | 0.00 | 0.00 | 0.00 | 66 | 1054.6 |
| 20260901145910 | 80 | 275 | 6.0 | 13.0 | 0.00 | 0.00 | 0.00 | 66 | 1054.6 |
| 20260901145900 | 80 | 195 | 6.0 | 13.0 | 0.00 | 0.00 | 0.00 | 66 | 1054.6 |
| 20260901145846 | 80 | 197 | 6.0 | 13.0 | 0.00 | 0.00 | 0.00 | 66 | 1054.6 |
| 20260901145838 | 80 | 207 | 5.0 | 13.0 | 0.00 | 0.00 | 0.00 | 66 | 1054.7 |
| 20260901145829 | 80 | 229 | 5.0 | 13.0 | 0.00 | 0.00 | 0.00 | 66 | 1054.7 |
| 20260901145338 | 80 | 210 | 5.0 | 12.0 | 0.00 | 0.00 | 0.00 | 66 | 1054.8 |
| 20260901145323 | 80 | 217 | 4.0 | 10.0 | 0.00 | 0.00 | 0.00 | 67 | 1054.8 |
| 20260901145315 | 80 | 190 | 4.0 | 10.0 | 0.00 | 0.00 | 0.00 | 67 | 1054.8 |
| 20260901145052 | 80 | 181 | 3.0 | 10.0 | 0.00 | 0.00 | 0.00 | 67 | 1054.8 |
| 20260901144730 | 80 | 206 | 4.0 | 10.0 | 0.00 | 0.00 | 0.00 | 67 | 1054.7 |
| 20260901144708 | 80 | 204 | 4.0 | 11.0 | 0.00 | 0.00 | 0.00 | 66 | 1054.6 |
| 20260901144701 | 80 | 189 | 5.0 | 12.0 | 0.00 | 0.00 | 0.00 | 66 | 1054.6 |
| 20260901144653 | 80 | 131 | 5.0 | 12.0 | 0.00 | 0.00 | 0.00 | 66 | 1054.6 |
| 20260901144331 | 80 | 198 | 5.0 | 13.0 | 0.00 | 0.00 | 0.00 | 66 | 1054.8 |
| 20260901144228 | 80 | 151 | 5.0 | 13.0 | 0.00 | 0.00 | 0.00 | 66 | 1054.7 |
| 20260901144203 | 80 | 241 | 5.0 | 13.0 | 0.00 | 0.00 | 0.00 | 66 | 1054.8 |
| 20260901144156 | 80 | 243 | 6.0 | 13.0 | 0.00 | 0.00 | 0.00 | 66 | 1054.8 |
| 20260901144149 | 80 | 243 | 6.0 | 13.0 | 0.00 | 0.00 | 0.00 | 66 | 1054.8 |
| 20260901143828 | 80 | 179 | 7.0 | 13.0 | 0.00 | 0.00 | 0.00 | 66 | 1054.9 |
| 20260901143726 | 80 | 167 | 6.0 | 13.0 | 0.00 | 0.00 | 0.00 | 66 | 1055.0 |
| 20260901143626 | 80 | 206 | 6.0 | 13.0 | 0.00 | 0.00 | 0.00 | 66 | 1055.0 |
| 20260901143602 | 80 | 237 | 6.0 | 13.0 | 0.00 | 0.00 | 0.00 | 66 | 1055.0 |
| 20260901143555 | 80 | 236 | 6.0 | 13.0 | 0.00 | 0.00 | 0.00 | 66 | 1055.0 |
| 20260901143547 | 80 | 197 | 5.0 | 13.0 | 0.00 | 0.00 | 0.00 | 66 | 1055.0 |
| 20260901143222 | 80 | 234 | 5.0 | 13.0 | 0.00 | 0.00 | 0.00 | 66 | 1055.0 |
| 20260901143120 | 80 | 238 | 5.0 | 13.0 | 0.00 | 0.00 | 0.00 | 66 | 1055.0 |
| 20260901143101 | 80 | 208 | 5.0 | 13.0 | 0.00 | 0.00 | 0.00 | 66 | 1055.0 |
| 20260901143018 | 80 | 186 | 5.0 | 13.0 | 0.00 | 0.00 | 0.00 | 65 | 1055.0 |
| 20260901142918 | 80 | 223 | 5.0 | 11.0 | 0.00 | 0.00 | 0.00 | 66 | 1055.1 |
| 20260901142906 | 80 | 209 | 4.0 | 9.0 | 0.00 | 0.00 | 0.00 | 66 | 1055.1 |
| 20260901142858 | 80 | 193 | 4.0 | 9.0 | 0.00 | 0.00 | 0.00 | 66 | 1055.0 |
| 20260901142842 | 80 | 191 | 4.0 | 9.0 | 0.00 | 0.00 | 0.00 | 66 | 1055.0 |
| 20260901142834 | 80 | 225 | 4.0 | 9.0 | 0.00 | 0.00 | 0.00 | 66 | 1055.1 |
| 20260901142607 | 80 | 120 | 4.0 | 9.0 | 0.00 | 0.00 | 0.00 | 66 | 1055.0 |
| 20260901142556 | 80 | 199 | 4.0 | 9.0 | 0.00 | 0.00 | 0.00 | 66 | 1055.0 |
| 20260901142104 | 80 | 206 | 4.0 | 9.0 | 0.00 | 0.00 | 0.00 | 66 | 1055.0 |
| 20260901142016 | 80 | 245 | 4.0 | 9.0 | 0.00 | 0.00 | 0.00 | 66 | 1055.0 |
| 20260901141916 | 80 | 179 | 4.0 | 9.0 | 0.00 | 0.00 | 0.00 | 66 | 1055.0 |
| 20260901141816 | 80 | 146 | 4.0 | 8.0 | 0.00 | 0.00 | 0.00 | 66 | 1055.0 |
| 20260901141736 | 80 | 179 | 4.0 | 10.0 | 0.00 | 0.00 | 0.00 | 66 | 1055.1 |
| 20260901141726 | 80 | 180 | 4.0 | 10.0 | 0.00 | 0.00 | 0.00 | 66 | 1054.9 |
| 20260901141721 | 80 | 227 | 4.0 | 10.0 | 0.00 | 0.00 | 0.00 | 66 | 1054.9 |
| 20260901141701 | 80 | 136 | 4.0 | 10.0 | 0.00 | 0.00 | 0.00 | 66 | 1054.9 |
| 20260901141650 | 80 | 259 | 4.0 | 10.0 | 0.00 | 0.00 | 0.00 | 66 | 1054.9 |
| 20260901141101 | 80 | 164 | 5.0 | 13.0 | 0.00 | 0.00 | 0.00 | 65 | 1054.9 |
| 20260901141006 | 81 | 137 | 5.0 | 13.0 | 0.00 | 0.00 | 0.00 | 65 | 1054.9 |
| 20260901140906 | 81 | 230 | 5.0 | 13.0 | 0.00 | 0.00 | 0.00 | 65 | 1054.9 |
| 20260901140806 | 81 | 193 | 5.0 | 13.0 | 0.00 | 0.00 | 0.00 | 65 | 1054.9 |
| 20260901140707 | 81 | 161 | 5.0 | 13.0 | 0.00 | 0.00 | 0.00 | 65 | 1054.9 |
| 20260901140607 | 81 | 185 | 5.0 | 13.0 | 0.00 | 0.00 | 0.00 | 65 | 1055.0 |
| 20260901140601 | 81 | 185 | 6.0 | 13.0 | 0.00 | 0.00 | 0.00 | 65 | 1055.0 |
| 20260901140507 | 81 | 258 | 6.0 | 13.0 | 0.00 | 0.00 | 0.00 | 65 | 1054.9 |
| 20260901140406 | 81 | 264 | 6.0 | 13.0 | 0.00 | 0.00 | 0.00 | 64 | 1054.9 |
| 20260901140306 | 81 | 235 | 6.0 | 13.0 | 0.00 | 0.00 | 0.00 | 64 | 1054.9 |
| 20260901140206 | 81 | 218 | 6.0 | 12.0 | 0.00 | 0.00 | 0.00 | 64 | 1054.9 |
| 20260901140105 | 81 | 167 | 6.0 | 12.0 | 0.00 | 0.00 | 0.00 | 64 | 1055.0 |
| 20260901140004 | 81 | 179 | 6.0 | 12.0 | 0.00 | 0.00 | 0.00 | 64 | 1055.0 |
| 20260901135902 | 81 | 196 | 6.0 | 11.0 | 0.00 | 0.00 | 0.00 | 64 | 1055.0 |
| 20260901135802 | 81 | 276 | 5.0 | 11.0 | 0.00 | 0.00 | 0.00 | 64 | 1055.1 |
| 20260901135708 | 81 | 250 | 5.0 | 11.0 | 0.00 | 0.00 | 0.00 | 64 | 1055.0 |
| 20260901135656 | 81 | 197 | 5.0 | 10.0 | 0.00 | 0.00 | 0.00 | 64 | 1055.1 |
| 20260901135652 | 81 | 202 | 5.0 | 10.0 | 0.00 | 0.00 | 0.00 | 64 | 1055.1 |
| 20260901135641 | 81 | 193 | 5.0 | 10.0 | 0.00 | 0.00 | 0.00 | 64 | 1055.0 |
| 20260901135407 | 81 | 180 | 4.0 | 9.0 | 0.00 | 0.00 | 0.00 | 63 | 1054.9 |
| 20260901135353 | 81 | 151 | 4.0 | 9.0 | 0.00 | 0.00 | 0.00 | 63 | 1054.9 |
| 20260901135131 | 81 | 112 | 4.0 | 9.0 | 0.00 | 0.00 | 0.00 | 63 | 1054.9 |
| 20260901135120 | 81 | 173 | 4.0 | 9.0 | 0.00 | 0.00 | 0.00 | 63 | 1054.9 |
| 20260901135108 | 81 | 166 | 5.0 | 9.0 | 0.00 | 0.00 | 0.00 | 63 | 1055.0 |
| 20260901134831 | 81 | 220 | 4.0 | 9.0 | 0.00 | 0.00 | 0.00 | 63 | 1055.1 |
| 20260901134556 | 81 | 214 | 3.0 | 9.0 | 0.00 | 0.00 | 0.00 | 63 | 1055.1 |
| 20260901134454 | 81 | 219 | 3.0 | 9.0 | 0.00 | 0.00 | 0.00 | 63 | 1054.9 |
| 20260901134354 | 81 | 261 | 3.0 | 9.0 | 0.00 | 0.00 | 0.00 | 63 | 1054.8 |
| 20260901134337 | 81 | 264 | 3.0 | 7.0 | 0.00 | 0.00 | 0.00 | 62 | 1054.7 |
| 20260901134323 | 81 | 197 | 3.0 | 7.0 | 0.00 | 0.00 | 0.00 | 62 | 1054.8 |
| 20260901134054 | 81 | 251 | 3.0 | 7.0 | 0.00 | 0.00 | 0.00 | 63 | 1054.7 |
| 20260901133954 | 81 | 215 | 3.0 | 7.0 | 0.00 | 0.00 | 0.00 | 63 | 1054.7 |
| 20260901133854 | 81 | 214 | 3.0 | 7.0 | 0.00 | 0.00 | 0.00 | 64 | 1054.8 |
| 20260901133807 | 81 | 233 | 3.0 | 9.0 | 0.00 | 0.00 | 0.00 | 64 | 1054.9 |
| 20260901133757 | 81 | 233 | 3.0 | 9.0 | 0.00 | 0.00 | 0.00 | 64 | 1055.0 |
| 20260901133749 | 81 | 233 | 3.0 | 9.0 | 0.00 | 0.00 | 0.00 | 64 | 1055.1 |
| 20260901133740 | 81 | 233 | 3.0 | 9.0 | 0.00 | 0.00 | 0.00 | 63 | 1055.1 |
| 20260901133728 | 81 | 208 | 3.0 | 9.0 | 0.00 | 0.00 | 0.00 | 64 | 1055.1 |
| 20260901133146 | 81 | 279 | 3.0 | 9.0 | 0.00 | 0.00 | 0.00 | 63 | 1055.1 |
| 20260901133101 | 81 | 222 | 3.0 | 9.0 | 0.00 | 0.00 | 0.00 | 63 | 1055.1 |
| 20260901133044 | 81 | 228 | 3.0 | 9.0 | 0.00 | 0.00 | 0.00 | 63 | 1055.1 |
| 20260901132944 | 81 | 233 | 3.0 | 9.0 | 0.00 | 0.00 | 0.00 | 63 | 1055.1 |
| 20260901132844 | 81 | 237 | 3.0 | 9.0 | 0.00 | 0.00 | 0.00 | 63 | 1055.1 |
| 20260901132744 | 81 | 209 | 3.0 | 9.0 | 0.00 | 0.00 | 0.00 | 64 | 1055.2 |
| 20260901132644 | 81 | 152 | 3.0 | 9.0 | 0.00 | 0.00 | 0.00 | 64 | 1055.2 |
| 20260901132601 | 81 | 251 | 3.0 | 9.0 | 0.00 | 0.00 | 0.00 | 63 | 1055.2 |
| 20260901132538 | 81 | 201 | 3.0 | 9.0 | 0.00 | 0.00 | 0.00 | 64 | 1055.2 |
| 20260901132439 | 81 | 162 | 3.0 | 7.0 | 0.00 | 0.00 | 0.00 | 63 | 1055.1 |
| 20260901132338 | 81 | 167 | 3.0 | 7.0 | 0.00 | 0.00 | 0.00 | 63 | 1055.1 |
| 20260901132256 | 81 | 99 | 3.0 | 9.0 | 0.00 | 0.00 | 0.00 | 63 | 1055.0 |
| 20260901132246 | 81 | 101 | 3.0 | 9.0 | 0.00 | 0.00 | 0.00 | 63 | 1055.0 |
| 20260901132240 | 81 | 101 | 4.0 | 9.0 | 0.00 | 0.00 | 0.00 | 63 | 1055.1 |
| 20260901132229 | 81 | 100 | 4.0 | 12.0 | 0.00 | 0.00 | 0.00 | 63 | 1055.1 |
| 20260901132217 | 81 | 164 | 4.0 | 12.0 | 0.00 | 0.00 | 0.00 | 63 | 1055.1 |
| 20260901131636 | 81 | 186 | 4.0 | 12.0 | 0.00 | 0.00 | 0.00 | 63 | 1055.4 |
| 20260901131600 | 81 | 191 | 4.0 | 12.0 | 0.00 | 0.00 | 0.00 | 63 | 1055.3 |
| 20260901131536 | 81 | 195 | 4.0 | 12.0 | 0.00 | 0.00 | 0.00 | 63 | 1055.3 |
| 20260901131434 | 81 | 197 | 4.0 | 12.0 | 0.00 | 0.00 | 0.00 | 63 | 1055.3 |
| 20260901131334 | 81 | 188 | 4.0 | 12.0 | 0.00 | 0.00 | 0.00 | 63 | 1055.2 |
| 20260901131232 | 81 | 236 | 4.0 | 12.0 | 0.00 | 0.00 | 0.00 | 62 | 1055.2 |
| 20260901131132 | 81 | 143 | 4.0 | 12.0 | 0.00 | 0.00 | 0.00 | 63 | 1055.2 |
| 20260901131101 | 81 | 100 | 4.0 | 12.0 | 0.00 | 0.00 | 0.00 | 62 | 1055.3 |
| 20260901131030 | 81 | 89 | 4.0 | 11.0 | 0.00 | 0.00 | 0.00 | 62 | 1055.3 |
| 20260901130930 | 81 | 71 | 4.0 | 11.0 | 0.00 | 0.00 | 0.00 | 62 | 1055.3 |
| 20260901130832 | 81 | 115 | 4.0 | 11.0 | 0.00 | 0.00 | 0.00 | 62 | 1055.3 |
| 20260901130729 | 81 | 153 | 4.0 | 8.0 | 0.00 | 0.00 | 0.00 | 62 | 1055.3 |
| 20260901130630 | 81 | 188 | 4.0 | 8.0 | 0.00 | 0.00 | 0.00 | 62 | 1055.4 |
| 20260901130600 | 81 | 184 | 4.0 | 8.0 | 0.00 | 0.00 | 0.00 | 62 | 1055.3 |
| 20260901130529 | 81 | 129 | 4.0 | 8.0 | 0.00 | 0.00 | 0.00 | 62 | 1055.3 |
| 20260901130429 | 81 | 208 | 4.0 | 8.0 | 0.00 | 0.00 | 0.00 | 61 | 1055.3 |
| 20260901130403 | 82 | 206 | 4.0 | 9.0 | 0.00 | 0.00 | 0.00 | 61 | 1055.4 |
| 20260901130354 | 82 | 206 | 4.0 | 9.0 | 0.00 | 0.00 | 0.00 | 61 | 1055.4 |
| 20260901130101 | 82 | 208 | 4.0 | 9.0 | 0.00 | 0.00 | 0.00 | 60 | 1055.5 |
| 20260901130028 | 82 | 162 | 4.0 | 9.0 | 0.00 | 0.00 | 0.00 | 61 | 1055.5 |
| 20260901125927 | 82 | 156 | 4.0 | 9.0 | 0.00 | 0.00 | 0.00 | 61 | 1055.5 |
| 20260901125855 | 82 | 107 | 4.0 | 9.0 | 0.00 | 0.00 | 0.00 | 61 | 1055.5 |
| 20260901125847 | 82 | 192 | 4.0 | 9.0 | 0.00 | 0.00 | 0.00 | 61 | 1055.5 |
| 20260901125609 | 82 | 216 | 5.0 | 13.0 | 0.00 | 0.00 | 0.00 | 61 | 1055.7 |
| 20260901125600 | 82 | 207 | 5.0 | 13.0 | 0.00 | 0.00 | 0.00 | 61 | 1055.7 |
| 20260901125549 | 82 | 122 | 5.0 | 13.0 | 0.00 | 0.00 | 0.00 | 60 | 1055.7 |
| 20260901125540 | 82 | 69 | 5.0 | 13.0 | 0.00 | 0.00 | 0.00 | 60 | 1055.6 |
| 20260901125531 | 82 | 193 | 5.0 | 13.0 | 0.00 | 0.00 | 0.00 | 60 | 1055.7 |
| 20260901125012 | 82 | 238 | 5.0 | 13.0 | 0.00 | 0.00 | 0.00 | 60 | 1055.7 |
| 20260901124911 | 82 | 245 | 6.0 | 13.0 | 0.00 | 0.00 | 0.00 | 60 | 1055.7 |
| 20260901124806 | 82 | 233 | 6.0 | 13.0 | 0.00 | 0.00 | 0.00 | 60 | 1055.7 |
| 20260901124705 | 83 | 198 | 6.0 | 13.0 | 0.00 | 0.00 | 0.00 | 59 | 1055.8 |
| 20260901124605 | 83 | 133 | 6.0 | 11.0 | 0.00 | 0.00 | 0.00 | 59 | 1055.8 |
| 20260901124548 | 83 | 146 | 6.0 | 11.0 | 0.00 | 0.00 | 0.00 | 59 | 1055.8 |
| 20260901124506 | 83 | 167 | 6.0 | 11.0 | 0.00 | 0.00 | 0.00 | 60 | 1055.7 |
| 20260901124406 | 82 | 225 | 6.0 | 11.0 | 0.00 | 0.00 | 0.00 | 60 | 1055.8 |
| 20260901124304 | 82 | 201 | 6.0 | 11.0 | 0.00 | 0.00 | 0.00 | 60 | 1055.7 |
| 20260901124204 | 82 | 280 | 5.0 | 11.0 | 0.00 | 0.00 | 0.00 | 61 | 1055.7 |
| 20260901124104 | 82 | 272 | 5.0 | 11.0 | 0.00 | 0.00 | 0.00 | 62 | 1055.8 |
| 20260901124045 | 82 | 242 | 5.0 | 11.0 | 0.00 | 0.00 | 0.00 | 62 | 1055.8 |
| 20260901124003 | 82 | 229 | 5.0 | 11.0 | 0.00 | 0.00 | 0.00 | 61 | 1055.8 |
| 20260901123901 | 82 | 197 | 5.0 | 11.0 | 0.00 | 0.00 | 0.00 | 61 | 1055.8 |
| 20260901123840 | 82 | 236 | 5.0 | 11.0 | 0.00 | 0.00 | 0.00 | 62 | 1055.8 |
| 20260901123832 | 82 | 175 | 5.0 | 11.0 | 0.00 | 0.00 | 0.00 | 62 | 1055.8 |
| 20260901123546 | 82 | 213 | 5.0 | 11.0 | 0.00 | 0.00 | 0.00 | 62 | 1055.7 |
| 20260901123504 | 82 | 174 | 5.0 | 11.0 | 0.00 | 0.00 | 0.00 | 61 | 1055.7 |
| 20260901123401 | 82 | 134 | 5.0 | 12.0 | 0.00 | 0.00 | 0.00 | 60 | 1055.7 |
| 20260901123302 | 82 | 114 | 5.0 | 12.0 | 0.00 | 0.00 | 0.00 | 61 | 1055.7 |
| 20260901123200 | 82 | 128 | 4.0 | 12.0 | 0.00 | 0.00 | 0.00 | 61 | 1055.7 |
| 20260901123140 | 82 | 198 | 4.0 | 12.0 | 0.00 | 0.00 | 0.00 | 61 | 1055.7 |
| 20260901123135 | 82 | 189 | 4.0 | 12.0 | 0.00 | 0.00 | 0.00 | 61 | 1055.7 |
| 20260901123125 | 82 | 218 | 5.0 | 12.0 | 0.00 | 0.00 | 0.00 | 61 | 1055.8 |
| 20260901122800 | 82 | 191 | 5.0 | 13.0 | 0.00 | 0.00 | 0.00 | 61 | 1055.8 |
| 20260901122659 | 82 | 200 | 5.0 | 13.0 | 0.00 | 0.00 | 0.00 | 61 | 1055.7 |
| 20260901122554 | 82 | 222 | 5.0 | 13.0 | 0.00 | 0.00 | 0.00 | 62 | 1055.7 |
| 20260901122544 | 82 | 213 | 5.0 | 13.0 | 0.00 | 0.00 | 0.00 | 62 | 1055.7 |
| 20260901122454 | 82 | 244 | 5.0 | 13.0 | 0.00 | 0.00 | 0.00 | 62 | 1055.7 |
| 20260901122353 | 82 | 157 | 5.0 | 13.0 | 0.00 | 0.00 | 0.00 | 62 | 1055.7 |
| 20260901122254 | 82 | 162 | 6.0 | 13.0 | 0.00 | 0.00 | 0.00 | 62 | 1055.7 |
| 20260901122153 | 82 | 169 | 6.0 | 13.0 | 0.00 | 0.00 | 0.00 | 62 | 1055.7 |
| 20260901122044 | 82 | 213 | 6.0 | 13.0 | 0.00 | 0.00 | 0.00 | 61 | 1055.7 |
| 20260901121946 | 82 | 237 | 6.0 | 13.0 | 0.00 | 0.00 | 0.00 | 61 | 1055.7 |
| 20260901121845 | 82 | 148 | 6.0 | 13.0 | 0.00 | 0.00 | 0.00 | 61 | 1055.8 |
| 20260901121745 | 82 | 120 | 7.0 | 13.0 | 0.00 | 0.00 | 0.00 | 61 | 1055.6 |
| 20260901121720 | 82 | 196 | 6.0 | 17.0 | 0.00 | 0.00 | 0.00 | 61 | 1055.7 |
| 20260901121707 | 82 | 128 | 7.0 | 17.0 | 0.00 | 0.00 | 0.00 | 61 | 1055.7 |
| 20260901121339 | 82 | 205 | 7.0 | 17.0 | 0.00 | 0.00 | 0.00 | 60 | 1055.8 |
| 20260901121237 | 82 | 166 | 6.0 | 17.0 | 0.00 | 0.00 | 0.00 | 60 | 1055.7 |
| 20260901121139 | 82 | 240 | 6.0 | 17.0 | 0.00 | 0.00 | 0.00 | 59 | 1055.8 |
| 20260901121046 | 82 | 255 | 6.0 | 17.0 | 0.00 | 0.00 | 0.00 | 59 | 1056.0 |
| 20260901121037 | 82 | 276 | 6.0 | 17.0 | 0.00 | 0.00 | 0.00 | 59 | 1056.0 |
| 20260901120938 | 83 | 224 | 6.0 | 17.0 | 0.00 | 0.00 | 0.00 | 59 | 1056.1 |
| 20260901120837 | 83 | 177 | 6.0 | 17.0 | 0.00 | 0.00 | 0.00 | 59 | 1056.0 |
| 20260901120815 | 83 | 250 | 6.0 | 17.0 | 0.00 | 0.00 | 0.00 | 59 | 1055.8 |
| 20260901120804 | 83 | 254 | 5.0 | 13.0 | 0.00 | 0.00 | 0.00 | 60 | 1056.0 |
| 20260901120753 | 83 | 227 | 6.0 | 13.0 | 0.00 | 0.00 | 0.00 | 61 | 1056.1 |
| 20260901120438 | 83 | 205 | 6.0 | 13.0 | 0.00 | 0.00 | 0.00 | 61 | 1056.0 |
| 20260901120336 | 83 | 218 | 6.0 | 13.0 | 0.00 | 0.00 | 0.00 | 61 | 1056.0 |
| 20260901120323 | 83 | 262 | 6.0 | 13.0 | 0.00 | 0.00 | 0.00 | 60 | 1056.0 |
| 20260901120304 | 83 | 261 | 6.0 | 13.0 | 0.00 | 0.00 | 0.00 | 60 | 1056.0 |
| 20260901120033 | 83 | 233 | 6.0 | 13.0 | 0.00 | 0.00 | 0.00 | 60 | 1056.1 |
| 20260901120017 | 83 | 264 | 6.0 | 13.0 | 0.00 | 0.00 | 0.00 | 60 | 1056.1 |
| 20260901120007 | 83 | 241 | 6.0 | 13.0 | 0.00 | 0.00 | 0.00 | 60 | 1056.0 |
| 20260901115632 | 83 | 238 | 8.0 | 16.0 | 0.00 | 0.00 | 0.00 | 60 | 1056.0 |
| 20260901115542 | 83 | 206 | 7.0 | 17.0 | 0.00 | 0.00 | 0.00 | 60 | 1056.1 |
| 20260901115532 | 83 | 208 | 7.0 | 17.0 | 0.00 | 0.00 | 0.00 | 60 | 1056.1 |
| 20260901115434 | 83 | 189 | 7.0 | 17.0 | 0.00 | 0.00 | 0.00 | 60 | 1056.1 |
| 20260901115332 | 83 | 215 | 7.0 | 17.0 | 0.00 | 0.00 | 0.00 | 60 | 1056.1 |